YYYY MM/DD hh:mm	Temp	Humid	W_dir	W_spd	Barom	T_int	Light	Power	Temp2	P2	Snow	T_mid	T_base	Precip
Year Date  Time 	(F)	(%)	(Deg)	(MPH)	("Hg)	(F)	/1000	(V)	(F)	-	(")	(F)	(F)	(")
2018 06/11 00:00	34.3	100.9	242.8	10.1	29.90	41.4	0.0	12.98	-39.9	0	0.7	32.6	39.0	0	241	0	0	146	44.4	42.2	0.0
2018 06/11 00:15	34.3	100.8	231.3	10.8	29.90	41.4	0.0	12.99	-40.0	0	0.4	33.5	39.1	0	242	0	0	146	44.3	42.2	0.0
2018 06/11 00:30	34.4	100.9	226.2	11.2	29.90	41.3	0.0	13.00	-40.0	0	0.5	33.5	39.1	0	243	0	0	146	44.3	42.1	0.0
2018 06/11 00:45	34.4	100.8	234.8	11.7	29.90	41.1	-0.3	12.99	-39.9	0	0.5	33.5	39.0	0	244	0	0	146	44.1	42.1	0.0
2018 06/11 01:00	34.4	100.9	243.8	9.5	29.90	41.1	0.0	12.98	-40.1	0	0.4	33.5	39.0	0	245	0	0	146	44.1	42.1	0.0
2018 06/11 01:15	34.4	100.9	261.1	10.6	29.90	41.1	0.0	12.98	-40.0	0	0.5	33.5	39.0	0	246	0	0	146	44.0	42.1	0.0
2018 06/11 01:30	34.2	100.9	210.5	8.7	29.90	41.0	-0.3	12.98	-40.1	0	0.4	33.5	39.0	0	247	0	0	146	43.9	42.1	0.0
2018 06/11 01:45	34.0	100.8	285.1	6.1	29.90	40.9	0.0	12.98	-39.8	0	0.4	33.5	39.1	0	248	0	0	146	43.8	42.1	0.0
2018 06/11 02:00	33.8	100.9	279.7	8.3	29.90	40.9	0.0	12.98	-40.0	0	0.5	33.5	39.3	0	249	0	0	146	43.8	42.0	0.0
2018 06/11 02:15	34.2	100.9	277.4	6.0	29.91	40.8	0.0	13.00	-39.8	0	0.5	33.5	39.4	0	249	0	0	146	43.7	42.0	0.0
2018 06/11 02:30	34.0	101.0	276.8	2.4	29.91	40.8	0.0	13.00	-40.1	0	0.5	33.5	39.3	0	250	0	0	146	43.7	42.0	0.0
2018 06/11 02:45	33.8	101.0	294.3	7.2	29.91	40.7	0.0	13.00	-40.2	0	0.5	33.5	39.4	0	252	0	0	146	43.7	42.0	0.0
2018 06/11 03:00	33.8	101.0	240.8	7.5	29.91	40.7	-0.3	13.01	-40.0	0	0.5	33.5	39.3	0	252	0	0	146	43.5	42.0	0.0
2018 06/11 03:15	33.9	100.9	293.9	7.5	29.91	40.6	0.0	12.99	-40.2	0	0.5	33.5	39.3	0	252	0	0	146	43.4	42.0	0.0
2018 06/11 03:30	33.8	100.9	265.9	7.4	29.91	40.6	0.0	13.01	-40.0	0	0.5	33.5	39.3	0	253	0	0	146	43.4	41.9	0.0
2018 06/11 03:45	33.7	100.9	256.6	5.8	29.91	40.5	0.0	12.99	-40.0	0	0.5	33.5	39.3	0	253	0	0	146	43.3	41.9	0.0
2018 06/11 04:00	33.7	101.1	282.9	6.8	29.92	40.5	0.0	13.01	-40.0	0	0.5	33.5	39.1	0	253	0	0	146	43.2	41.9	0.0
2018 06/11 04:15	33.9	101.1	242.3	8.6	29.92	40.4	0.0	12.99	-40.0	0	0.5	33.5	39.1	0	254	0	0	146	43.2	41.9	0.0
2018 06/11 04:30	33.8	101.0	294.2	8.6	29.92	40.3	0.0	13.01	-39.9	0	0.4	33.5	39.3	0	254	0	0	146	43.2	41.9	0.0
2018 06/11 04:45	33.5	101.1	280.2	9.1	29.93	40.3	0.7	13.00	-39.8	0	0.5	33.5	39.1	0	255	0	0	146	43.1	41.7	0.0
2018 06/11 05:00	33.8	101.0	284.6	5.4	29.93	40.3	10.5	12.99	-40.1	0	0.5	33.5	39.0	0	256	0	0	146	43.1	41.7	0.0
2018 06/11 05:15	33.9	100.9	276.1	8.0	29.93	40.2	54.3	12.99	-40.0	0	0.5	33.5	39.3	0	257	0	0	146	43.1	41.7	0.0
2018 06/11 05:30	33.9	100.9	304.9	5.4	29.94	40.2	164.6	13.01	-40.0	0	0.5	33.5	39.6	0	257	0	0	146	43.0	41.7	0.0
2018 06/11 05:45	34.2	100.9	243.9	5.5	29.95	40.1	297.6	12.97	-40.0	0	0.5	33.5	39.7	0	257	0	0	146	42.9	41.7	0.0
2018 06/11 06:00	34.2	100.9	284.6	5.8	29.95	40.1	412.0	12.99	-40.1	0	0.6	33.5	39.7	0	257	0	0	146	42.9	41.7	0.0
2018 06/11 06:15	34.4	100.9	249.6	6.9	29.96	40.0	532.5	13.01	-39.9	0	0.6	33.5	39.9	0	257	0	0	146	42.9	41.7	0.0
2018 06/11 06:30	34.5	100.9	292.8	6.2	29.96	40.0	576.6	12.99	-40.0	0	0.6	33.5	40.2	0	257	0	0	146	42.9	41.7	0.0
2018 06/11 06:45	34.6	100.9	302.6	4.8	29.97	39.9	690.0	13.00	-40.0	0	0.5	34.4	40.3	0	257	0	0	146	42.9	41.7	0.0
2018 06/11 07:00	35.0	100.8	285.4	5.5	29.97	39.9	767.0	12.99	-39.9	0	0.8	34.4	40.7	0	258	0	0	146	42.9	41.7	0.0
2018 06/11 07:15	35.1	100.8	278.9	6.1	29.98	39.9	674.0	13.00	-40.2	0	0.5	34.4	41.2	0	258	0	0	146	42.9	41.9	0.0
2018 06/11 07:30	35.3	100.7	209.0	6.5	29.98	39.8	780.0	12.99	-40.0	0	0.6	35.3	40.9	0	258	0	0	146	43.0	42.0	0.0
2018 06/11 07:45	35.0	100.7	323.3	6.0	29.99	39.8	770.0	13.01	-39.9	0	0.4	35.3	41.4	0	258	0	0	146	43.1	42.0	0.0
2018 06/11 08:00	34.9	100.7	304.9	7.7	29.99	39.7	798.0	13.01	-40.1	0	0.6	36.2	42.2	0	258	0	0	146	43.3	42.1	0.0
2018 06/11 08:15	35.4	100.8	304.6	4.0	30.00	39.6	806.0	12.99	-39.9	0	0.6	36.2	42.1	0	258	0	0	146	43.7	42.4	0.0
2018 06/11 08:30	34.9	100.7	333.6	5.6	30.00	39.6	809.0	13.00	-40.2	0	0.4	38.0	42.3	0	258	0	0	146	44.0	42.5	0.0
2018 06/11 08:45	35.9	100.6	349.1	3.9	30.01	39.6	813.0	12.99	-40.1	0	0.2	39.8	43.6	0	258	0	0	146	44.4	42.7	0.0
2018 06/11 09:00	35.6	100.6	309.9	6.5	30.01	39.8	800.0	12.99	-39.9	0	0.4	39.8	44.2	0	258	0	0	146	45.2	43.1	0.0
2018 06/11 09:15	37.2	100.5	298.6	3.8	30.02	39.8	828.0	13.01	-40.0	0	0.5	39.8	44.8	0	258	0	0	146	46.1	43.3	0.0
2018 06/11 09:30	36.6	100.5	287.8	3.9	30.02	39.8	796.0	12.98	-40.1	0	0.5	38.9	44.8	0	258	0	0	146	46.7	43.7	0.0
2018 06/11 09:45	36.9	100.6	345.9	5.4	30.03	39.9	815.0	12.99	-40.2	0	0.4	39.8	44.8	0	258	0	0	146	47.7	44.1	0.0
2018 06/11 10:00	37.2	100.6	295.5	6.6	30.03	40.0	823.0	13.01	-40.1	0	1.0	39.8	45.6	0	258	0	0	146	48.7	44.4	0.0
2018 06/11 10:15	36.9	100.5	305.8	7.5	30.03	40.1	842.0	13.01	-39.9	0	0.4	40.7	46.2	0	258	0	0	146	49.8	44.8	0.0
2018 06/11 10:30	38.9	100.7	313.2	9.1	30.04	40.2	848.0	13.00	-40.0	0	0.6	41.6	46.3	0	258	0	0	146	50.7	45.2	0.0
2018 06/11 10:45	38.8	100.7	332.8	8.2	30.05	40.3	848.0	12.99	-40.0	0	0.4	41.6	47.2	0	258	0	0	146	51.7	45.8	0.0
2018 06/11 11:00	38.9	100.6	267.8	7.7	30.05	40.5	846.0	12.99	-40.0	0	0.7	42.5	47.1	0	258	0	0	146	53.1	46.7	0.0
2018 06/11 11:15	39.9	96.5	237.8	3.2	30.06	40.7	844.0	13.01	-40.0	0	0.4	42.5	47.7	0	258	0	0	146	54.9	47.6	0.0
2018 06/11 11:30	40.0	91.2	311.1	8.0	30.06	40.9	852.0	13.00	-39.9	0	0.4	44.3	47.8	0	258	0	0	146	56.0	48.2	0.0
2018 06/11 11:45	40.3	87.2	264.4	7.8	30.07	41.1	840.0	13.00	-40.2	0	0.3	44.3	49.5	0	258	0	0	146	57.4	48.9	0.0
2018 06/11 12:00	41.5	81.5	314.3	8.6	30.07	41.3	824.0	13.00	-39.8	0	0.4	45.2	49.8	0	258	0	0	146	59.1	49.5	0.0
2018 06/11 12:15	43.5	76.0	266.7	5.3	30.08	41.6	844.0	13.01	-40.1	0	0.4	47.0	50.6	0	258	0	0	146	60.3	50.0	0.0
2018 06/11 12:30	43.1	69.1	288.5	11.8	30.08	41.8	842.0	12.98	-40.1	0	0.9	46.1	50.5	0	258	0	0	146	61.3	50.3	0.0
2018 06/11 12:45	43.7	72.6	325.6	4.5	30.09	42.0	842.0	13.01	-39.9	0	0.3	47.0	51.3	0	258	0	0	146	62.2	50.7	0.0
2018 06/11 13:00	44.5	72.3	312.9	9.4	30.09	42.3	843.0	12.98	-40.1	0	0.9	47.0	51.7	0	258	0	0	146	63.0	51.1	0.0
2018 06/11 13:15	44.9	65.4	319.7	3.5	30.10	42.5	842.0	13.00	-39.8	0	0.2	47.9	52.6	0	258	0	0	146	63.5	51.5	0.0
2018 06/11 13:30	44.7	62.0	313.2	8.2	30.10	42.8	840.0	13.00	-40.0	0	-0.2	48.8	52.8	0	258	0	0	146	64.0	51.9	0.0
2018 06/11 13:45	46.9	73.0	287.0	7.5	30.10	43.0	840.0	12.99	-40.2	0	0.7	48.8	54.0	0	258	0	0	146	64.2	52.2	0.0
2018 06/11 14:00	45.6	58.4	253.9	7.9	30.11	43.3	842.0	12.98	-40.0	0	0.2	48.8	54.1	0	258	0	0	146	64.7	52.4	0.0
2018 06/11 14:15	47.5	58.1	32.2	11.8	30.12	43.6	844.0	12.98	-40.0	0	0.2	50.6	54.6	0	258	0	0	146	64.8	52.5	0.0
2018 06/11 14:30	47.5	68.2	292.8	10.1	30.12	43.8	847.0	13.00	-39.9	0	0.4	50.6	55.0	0	258	0	0	146	64.8	52.4	0.0
2018 06/11 14:45	49.2	62.1	290.0	6.7	30.12	44.1	846.0	13.01	-40.0	0	-0.2	52.4	56.2	0	258	0	0	146	65.1	52.4	0.0
2018 06/11 15:00	48.5	53.1	306.7	8.5	30.12	44.3	847.0	13.00	-40.0	0	0.2	51.5	56.5	0	258	0	0	146	65.5	52.3	0.0
2018 06/11 15:15	48.0	52.3	263.9	3.4	30.13	44.6	848.0	12.99	-40.0	0	0.6	51.5	57.4	0	258	0	0	146	65.7	52.3	0.0
2018 06/11 15:30	49.7	62.4	322.6	4.6	30.13	44.9	848.0	13.00	-39.8	0	0.5	52.4	59.1	0	258	0	0	146	65.6	52.3	0.0
2018 06/11 15:45	49.8	47.2	29.1	4.2	30.14	45.3	849.0	13.00	-40.1	0	0.2	54.2	59.7	0	258	0	0	146	65.8	52.3	0.0
2018 06/11 16:00	50.8	48.9	322.5	8.5	30.14	45.6	850.0	12.98	-40.1	0	0.5	53.3	58.8	0	258	0	0	146	66.6	52.4	0.0
2018 06/11 16:15	51.3	43.4	268.3	7.2	30.14	45.9	852.0	12.98	-39.8	0	0.2	53.3	59.7	0	258	0	0	146	66.7	52.4	0.0
2018 06/11 16:30	51.5	44.3	336.4	10.0	30.14	46.2	856.0	12.98	-39.8	0	0.4	55.1	60.9	0	258	0	0	146	67.3	52.5	0.0
2018 06/11 16:45	50.5	49.1	354.0	6.0	30.15	46.5	854.0	13.01	-40.1	0	0.5	53.3	59.8	0	258	0	0	146	67.6	52.5	0.0
2018 06/11 17:00	52.8	50.8	254.6	6.8	30.15	47.0	856.0	13.00	-39.9	0	0.5	54.2	60.6	0	258	0	0	146	68.4	52.8	0.0
2018 06/11 17:15	51.6	44.6	267.0	5.2	30.16	47.4	912.0	13.02	-39.8	0	0.3	55.1	61.1	0	258	0	0	146	69.0	52.9	0.0
2018 06/11 17:30	52.0	47.0	268.8	7.8	30.16	47.8	952.0	12.99	-40.0	0	0.6	55.1	61.6	0	258	0	0	146	69.1	53.0	0.0
2018 06/11 17:45	52.5	45.8	290.8	6.9	30.16	48.2	960.0	13.01	-40.1	0	0.4	55.1	61.5	0	258	0	0	146	69.4	53.1	0.0
2018 06/11 18:00	51.9	50.3	277.4	6.1	30.16	48.6	961.0	12.99	-39.9	0	0.4	54.2	61.2	0	258	0	0	146	69.6	53.2	0.0
2018 06/11 18:15	51.7	47.0	288.2	5.9	30.16	49.0	959.0	13.02	-40.0	0	0.3	54.2	61.8	0	258	0	0	146	69.8	53.3	0.0
2018 06/11 18:30	52.5	53.5	314.7	9.5	30.17	49.5	854.0	13.01	-40.2	0	0.2	54.2	62.5	0	258	0	0	146	69.8	53.4	0.0
2018 06/11 18:45	51.5	51.0	350.7	9.8	30.17	49.9	856.0	12.99	-40.0	0	0.5	53.3	62.5	0	258	0	0	146	69.5	53.4	0.0
2018 06/11 19:00	51.5	57.7	322.2	8.2	30.17	50.3	960.0	13.02	-40.0	0	0.6	52.4	62.8	0	258	0	0	146	69.1	53.5	0.0
2018 06/11 19:15	50.9	57.7	306.9	9.7	30.18	50.7	938.0	12.99	-39.9	0	0.1	53.3	60.5	0	258	0	0	146	68.5	53.4	0.0
2018 06/11 19:30	50.9	57.8	328.7	8.3	30.18	51.2	960.0	12.99	-40.0	0	0.2	52.4	58.0	0	258	0	0	146	67.8	53.4	0.0
2018 06/11 19:45	50.6	59.8	313.2	9.1	30.19	51.6	958.0	13.01	-40.0	0	0.1	52.4	56.4	0	258	0	0	146	67.2	53.3	0.0
2018 06/11 20:00	50.0	62.7	323.2	9.9	30.20	52.0	955.0	12.99	-40.1	0	0.4	50.6	55.3	0	258	0	0	146	66.7	53.2	0.0
2018 06/11 20:15	49.5	65.1	312.8	9.2	30.20	52.4	947.0	13.00	-40.0	0	0.4	48.8	54.1	0	258	0	0	146	66.0	53.1	0.0
2018 06/11 20:30	48.5	67.1	325.0	10.7	30.20	52.9	926.0	12.99	-39.9	0	0.4	47.9	53.0	0	258	0	0	146	65.5	53.0	0.0
2018 06/11 20:45	47.8	70.4	316.2	6.6	30.21	53.3	858.0	13.01	-40.0	0	0.2	47.0	52.2	0	258	0	0	146	64.7	52.8	0.0
2018 06/11 21:00	47.0	72.4	318.3	5.3	30.21	53.7	458.7	12.99	-40.0	0	0.4	45.2	52.1	0	258	0	0	146	64.0	52.5	0.0
2018 06/11 21:15	47.8	58.8	24.6	5.8	30.22	53.9	165.2	13.00	-39.9	0	0.1	45.2	49.4	0	258	0	0	146	63.1	52.3	0.0
2018 06/11 21:30	50.0	50.6	110.1	7.5	30.22	54.3	27.8	13.01	-40.0	0	0.2	45.2	48.1	0	258	0	0	146	62.4	52.1	0.0
2018 06/11 21:45	50.1	50.7	99.0	8.2	30.23	54.6	4.4	13.01	-40.0	0	0.4	43.4	47.2	0	258	0	0	146	61.7	51.7	0.0
2018 06/11 22:00	50.0	49.5	85.5	10.6	30.23	54.8	0.7	12.99	-39.9	0	0.2	44.3	45.9	0	258	0	0	146	60.7	51.5	0.0
2018 06/11 22:15	49.4	50.6	91.9	12.0	30.23	55.0	0.0	12.99	-40.0	0	0.6	45.2	45.1	0	258	0	0	146	60.0	51.2	0.0
2018 06/11 22:30	48.5	53.9	103.6	13.9	30.23	55.1	0.0	12.99	-39.9	0	0.6	45.2	44.5	0	258	0	0	146	59.4	51.0	0.0
2018 06/11 22:45	47.9	56.5	104.5	15.4	30.23	55.2	0.0	13.01	-40.0	0	0.4	45.2	44.0	0	258	0	0	146	58.6	50.6	0.0
2018 06/11 23:00	47.9	56.7	90.6	15.5	30.24	55.2	0.0	13.01	-40.0	0	0.4	44.3	43.5	0	258	0	0	146	57.8	50.4	0.0
2018 06/11 23:15	47.8	57.7	89.4	15.7	30.24	55.4	0.0	13.01	-40.0	0	0.7	43.4	43.3	0	258	0	0	146	57.2	50.1	0.0
2018 06/11 23:30	47.5	57.9	101.9	14.9	30.24	55.4	0.0	12.99	-40.2	0	0.9	43.4	42.3	0	258	0	0	146	56.7	49.8	0.0
2018 06/11 23:45	47.7	57.4	103.7	18.2	30.23	55.4	-0.3	12.99	-40.0	0	0.4	44.3	42.3	0	258	0	0	146	56.0	49.5	0.0
2018 06/12 00:00	47.1	56.4	108.4	22.7	30.23	55.4	0.0	12.99	-39.9	0	0.8	43.4	41.7	0	258	0	0	146	55.5	49.3	0.0
2018 06/12 00:15	47.0	55.5	97.9	23.4	30.23	55.4	0.0	12.98	-40.1	0	0.4	44.3	41.5	0	258	0	0	146	54.9	49.0	0.0
2018 06/12 00:30	46.2	59.6	111.1	19.3	30.23	55.2	0.0	13.01	-39.9	0	0.4	44.3	41.3	0	258	0	0	146	54.5	48.7	0.0
2018 06/12 00:45	45.4	60.0	113.1	19.1	30.23	55.2	0.0	13.01	-39.9	0	0.6	43.4	40.6	0	258	0	0	146	53.9	48.5	0.0
2018 06/12 01:00	45.5	59.9	105.1	16.0	30.23	55.2	0.0	13.00	-40.1	0	0.6	41.6	40.3	0	258	0	0	146	53.4	48.3	0.0
2018 06/12 01:15	45.3	61.7	98.9	16.4	30.23	55.1	0.0	12.99	-40.0	0	0.8	41.6	39.9	0	258	0	0	146	53.0	47.9	0.0
2018 06/12 01:30	45.1	62.8	91.6	14.6	30.22	55.0	0.0	12.99	-39.8	0	0.7	41.6	39.7	0	258	0	0	146	52.7	47.8	0.0
2018 06/12 01:45	44.9	63.0	112.0	16.7	30.22	55.0	-0.3	12.98	-40.1	0	0.5	41.6	39.6	0	258	0	0	146	52.2	47.5	0.0
2018 06/12 02:00	45.1	60.9	99.9	18.9	30.22	54.8	0.0	13.01	-39.9	0	0.8	40.7	39.5	0	258	0	0	146	51.9	47.2	0.0
2018 06/12 02:15	45.9	57.8	105.0	19.8	30.21	54.8	0.0	12.99	-40.0	0	0.5	41.6	39.0	0	258	0	0	146	51.4	47.0	0.0
2018 06/12 02:30	45.6	56.0	107.2	17.6	30.21	54.6	0.0	12.99	-39.9	0	0.6	41.6	38.4	0	258	0	0	146	51.2	46.9	0.0
2018 06/12 02:45	45.6	56.4	79.3	12.1	30.21	54.6	0.0	13.01	-39.9	0	0.8	40.7	38.1	0	258	0	0	146	50.7	46.6	0.0
2018 06/12 03:00	45.9	54.8	107.2	16.4	30.21	54.4	0.0	12.99	-39.8	0	0.7	40.7	37.5	0	258	0	0	146	50.3	46.4	0.0
2018 06/12 03:15	45.4	55.6	97.4	11.2	30.20	54.4	0.0	13.01	-39.9	0	0.6	40.7	36.9	0	258	0	0	146	49.8	46.1	0.0
2018 06/12 03:30	45.3	53.6	107.9	11.9	30.20	54.1	0.0	13.01	-39.9	0	0.6	40.7	36.8	0	258	0	0	146	49.6	46.0	0.0
2018 06/12 03:45	45.6	52.6	111.9	12.9	30.19	54.0	0.0	12.99	-39.9	0	0.6	40.7	36.6	0	258	0	0	146	49.2	45.8	0.0
2018 06/12 04:00	45.5	54.6	117.0	11.3	30.19	53.9	0.0	13.01	-40.1	0	0.6	39.8	36.2	0	258	0	0	146	48.8	45.6	0.0
2018 06/12 04:15	45.3	55.5	102.6	15.4	30.18	53.7	0.0	12.99	-40.0	0	0.6	39.8	35.8	0	258	0	0	146	48.4	45.3	0.0
2018 06/12 04:30	44.3	58.6	73.5	13.3	30.18	53.5	0.3	13.01	-40.1	0	0.4	40.7	35.5	0	258	0	0	146	48.2	45.2	0.0
2018 06/12 04:45	44.3	58.3	79.0	9.7	30.17	53.5	4.1	13.00	-40.0	0	0.6	40.7	35.4	0	258	0	0	146	47.8	45.0	0.0
2018 06/12 05:00	45.0	53.9	110.6	9.2	30.17	53.3	31.9	13.01	-40.0	0	0.6	40.7	35.3	0	258	0	0	146	47.5	44.9	0.0
2018 06/12 05:15	45.5	52.4	106.0	8.5	30.16	53.1	179.1	13.00	-40.1	0	0.6	40.7	34.9	0	258	0	0	146	47.2	44.7	0.0
2018 06/12 05:30	43.9	58.8	97.3	10.0	30.16	53.0	430.5	13.02	-40.0	0	0.4	40.7	35.3	0	258	0	0	146	46.9	44.4	0.0
2018 06/12 05:45	44.4	58.9	94.7	13.3	30.15	52.9	582.9	13.02	-39.9	0	0.6	41.6	35.8	0	258	0	0	146	46.7	44.3	0.0
2018 06/12 06:00	44.4	60.7	94.0	20.7	30.14	52.6	674.1	13.00	-39.9	0	0.3	43.4	43.9	0	258	0	0	146	46.5	44.2	0.0
2018 06/12 06:15	44.4	61.3	104.2	18.8	30.14	52.4	719.0	13.01	-40.1	0	-0.1	45.2	44.9	0	258	0	0	146	46.2	44.1	0.0
2018 06/12 06:30	44.5	61.7	84.2	17.5	30.14	52.4	748.0	13.02	-39.8	0	-0.2	46.1	45.3	0	258	0	0	146	46.1	43.9	0.0
2018 06/12 06:45	44.8	58.3	89.9	16.2	30.14	52.2	757.0	12.99	-40.0	0	-0.3	47.0	46.2	0	258	0	0	146	45.9	43.8	0.0
2018 06/12 07:00	46.1	50.8	100.0	18.4	30.14	52.2	774.0	13.02	-40.0	0	-0.4	47.9	46.7	0	258	0	0	146	46.1	43.8	0.0
2018 06/12 07:15	46.4	53.7	96.4	12.7	30.14	52.2	783.0	13.02	-39.8	0	-0.1	47.9	47.4	0	258	0	0	146	46.1	43.7	0.0
2018 06/12 07:30	46.2	56.7	98.1	13.7	30.14	52.2	793.0	12.99	-39.9	0	0.0	47.9	48.3	0	258	0	0	146	46.4	43.8	0.0
2018 06/12 07:45	46.6	57.7	88.1	13.4	30.14	52.2	799.0	12.98	-40.1	0	-0.2	49.7	49.0	0	258	0	0	146	46.5	43.8	0.0
2018 06/12 08:00	46.8	56.7	94.3	13.2	30.14	52.2	803.0	13.00	-39.9	0	-0.1	49.7	49.9	0	258	0	0	146	46.8	44.0	0.0
2018 06/12 08:15	46.6	58.1	95.1	18.1	30.14	52.2	806.0	12.97	-40.0	0	0.2	48.8	50.7	0	258	0	0	146	47.1	44.4	0.0
2018 06/12 08:30	46.2	63.4	82.1	14.5	30.14	52.2	811.0	12.99	-39.9	0	-0.0	49.7	51.1	0	258	0	0	146	47.4	44.9	0.0
2018 06/12 08:45	47.0	63.5	77.4	14.8	30.15	52.2	811.0	13.00	-40.1	0	-0.3	52.4	51.3	0	258	0	0	146	47.8	45.2	0.0
2018 06/12 09:00	47.8	55.0	102.4	14.4	30.16	52.2	814.0	12.98	-39.8	0	0.4	51.5	52.5	0	258	0	0	146	48.6	45.6	0.0
2018 06/12 09:15	47.7	54.8	116.9	18.1	30.15	52.2	820.0	13.01	-40.1	0	0.4	50.6	53.8	0	258	0	0	146	49.4	46.1	0.0
2018 06/12 09:30	49.0	53.5	107.1	12.7	30.15	52.2	826.0	13.02	-39.9	0	0.7	52.4	53.8	0	258	0	0	146	50.0	46.7	0.0
2018 06/12 09:45	50.0	56.8	83.5	10.9	30.15	52.4	828.0	12.99	-40.0	0	0.3	53.3	54.8	0	258	0	0	146	50.9	47.4	0.0
2018 06/12 10:00	49.2	53.7	69.9	14.7	30.15	52.4	831.0	13.01	-40.2	0	0.1	53.3	56.4	0	258	0	0	146	52.0	47.7	0.0
2018 06/12 10:15	51.2	54.5	68.5	11.3	30.15	52.5	834.0	13.02	-39.9	0	0.3	54.2	57.0	0	258	0	0	146	53.2	48.5	0.0
2018 06/12 10:30	51.4	56.1	77.7	10.4	30.15	52.6	840.0	12.99	-40.1	0	1.0	53.3	58.0	0	258	0	0	146	53.9	49.2	0.0
2018 06/12 10:45	52.2	54.0	99.8	12.2	30.15	52.6	844.0	13.01	-40.0	0	1.3	55.1	58.4	0	258	0	0	146	55.1	50.2	0.0
2018 06/12 11:00	52.8	52.1	84.7	12.6	30.15	52.9	848.0	12.99	-40.0	0	0.1	55.1	59.1	0	258	0	0	146	56.6	51.4	0.0
2018 06/12 11:15	53.2	53.6	77.8	14.7	30.15	52.9	847.0	12.99	-40.1	0	1.0	56.0	60.2	0	258	0	0	146	58.0	52.7	0.0
2018 06/12 11:30	53.8	52.6	84.7	10.6	30.15	53.1	854.0	12.99	-40.1	0	0.3	56.9	60.7	0	258	0	0	146	59.4	53.5	0.0
2018 06/12 11:45	54.7	49.4	75.2	15.1	30.15	53.3	852.0	12.98	-39.9	0	0.2	59.6	61.4	0	258	0	0	146	61.1	54.7	0.0
2018 06/12 12:00	54.7	49.3	78.1	13.7	30.15	53.3	856.0	12.99	-40.0	0	-0.0	61.4	63.2	0	258	0	0	146	62.7	55.6	0.0
2018 06/12 12:15	56.6	45.5	92.0	9.9	30.16	53.5	855.0	13.00	-40.0	0	0.2	60.5	63.4	0	258	0	0	146	64.0	56.7	0.0
2018 06/12 12:30	57.5	53.0	61.6	7.2	30.16	53.7	855.0	12.99	-40.0	0	0.4	62.3	65.8	0	258	0	0	146	65.3	57.0	0.0
2018 06/12 12:45	57.8	48.1	55.8	5.9	30.16	53.9	852.0	13.02	-39.9	0	-0.5	62.3	64.9	0	258	0	0	146	66.7	57.4	0.0
2018 06/12 13:00	58.8	45.2	127.0	7.5	30.15	53.9	856.0	13.02	-40.1	0	0.4	63.2	66.0	0	258	0	0	146	67.7	58.0	0.0
2018 06/12 13:15	60.8	42.1	166.5	7.7	30.15	54.1	855.0	13.01	-40.0	0	-0.2	65.0	67.3	0	258	0	0	146	68.6	59.0	0.0
2018 06/12 13:30	63.0	43.2	85.2	5.5	30.15	54.4	853.0	13.01	-40.0	0	-0.9	66.8	68.6	0	258	0	0	146	69.6	59.4	0.0
2018 06/12 13:45	63.1	37.0	133.5	5.4	30.15	54.6	858.0	13.01	-40.0	0	0.3	66.8	70.0	0	258	0	0	146	70.5	60.1	0.0
2018 06/12 14:00	64.7	32.2	234.0	17.2	30.13	54.8	860.0	12.99	-39.8	0	0.2	66.8	71.0	0	258	0	0	146	71.5	60.4	0.0
2018 06/12 14:15	64.3	29.1	177.7	4.8	30.15	54.9	864.0	13.02	-40.0	0	0.1	66.8	70.9	0	258	0	0	146	72.5	60.5	0.0
2018 06/12 14:30	63.5	24.1	259.9	11.8	30.15	55.0	855.0	12.99	-40.0	0	0.0	67.7	72.4	0	258	0	0	146	72.7	60.6	0.0
2018 06/12 14:45	66.3	24.9	212.8	8.8	30.14	55.2	864.0	12.99	-40.0	0	0.2	67.7	73.2	0	258	0	0	146	73.1	60.5	0.0
2018 06/12 15:00	64.4	26.8	215.3	15.1	30.14	55.4	878.0	12.99	-40.1	0	0.2	67.7	73.0	0	258	0	0	146	73.8	60.6	0.0
2018 06/12 15:15	65.4	32.3	202.4	8.3	30.14	55.6	866.0	13.02	-39.8	0	0.5	67.7	72.3	0	258	0	0	146	74.5	60.6	0.0
2018 06/12 15:30	66.1	38.6	210.8	4.9	30.14	55.9	871.0	12.99	-40.0	0	-0.1	67.7	72.3	0	258	0	0	146	75.1	60.6	0.0
2018 06/12 15:45	65.9	37.9	333.6	5.8	30.15	56.1	876.0	13.01	-40.1	0	0.4	67.7	71.3	0	258	0	0	146	75.8	60.9	0.0
2018 06/12 16:00	65.9	41.9	308.8	5.9	30.15	56.5	873.0	13.02	-40.1	0	0.4	65.9	71.1	0	258	0	0	146	76.3	61.0	0.0
2018 06/12 16:15	64.3	42.9	277.1	8.2	30.15	56.7	883.0	13.01	-39.9	0	-0.2	66.8	71.5	0	258	0	0	146	76.4	61.1	0.0
2018 06/12 16:30	63.6	43.4	258.5	14.6	30.15	57.1	884.0	13.02	-40.1	0	0.2	65.9	71.9	0	258	0	0	146	76.6	61.3	0.0
2018 06/12 16:45	63.9	45.2	308.2	10.5	30.15	57.4	879.0	12.99	-40.0	0	0.5	65.9	70.8	0	258	0	0	146	77.0	61.4	0.0
2018 06/12 17:00	63.0	48.2	292.6	14.6	30.16	57.8	879.0	13.03	-39.8	0	0.3	64.1	70.0	0	258	0	0	146	77.6	61.7	0.0
2018 06/12 17:15	62.6	51.4	299.6	10.7	30.16	58.2	923.0	13.01	-40.0	0	0.5	64.1	70.5	0	258	0	0	146	78.1	61.9	0.0
2018 06/12 17:30	61.9	49.3	282.1	15.9	30.16	58.6	953.0	13.00	-40.1	0	0.2	64.1	70.0	0	258	0	0	146	78.4	62.0	0.0
2018 06/12 17:45	60.9	51.2	274.4	12.4	30.17	58.9	957.0	13.03	-39.9	0	0.5	62.3	68.4	0	258	0	0	146	78.4	62.0	0.0
2018 06/12 18:00	61.2	48.2	230.7	8.9	30.17	59.3	961.0	13.01	-40.1	0	0.5	62.3	69.4	0	258	0	0	146	78.2	62.1	0.0
2018 06/12 18:15	60.3	45.3	267.7	16.6	30.17	59.6	957.0	13.01	-40.0	0	0.2	62.3	68.3	0	258	0	0	146	78.2	62.0	0.0
2018 06/12 18:30	59.0	48.0	282.2	15.5	30.17	60.1	897.0	13.01	-40.0	0	0.2	60.5	66.3	0	258	0	0	146	77.6	61.9	0.0
2018 06/12 18:45	58.7	46.9	286.9	11.7	30.18	60.5	896.0	13.01	-40.0	0	0.4	59.6	66.0	0	258	0	0	146	76.8	61.5	0.0
2018 06/12 19:00	57.7	49.3	272.9	11.5	30.19	60.9	943.0	13.01	-40.1	0	0.5	58.7	65.9	0	258	0	0	146	75.9	61.3	0.0
2018 06/12 19:15	57.0	48.8	254.1	9.1	30.18	61.2	855.0	12.99	-40.0	0	0.4	56.9	63.2	0	258	0	0	146	74.8	60.9	0.0
2018 06/12 19:30	55.7	50.5	240.4	7.7	30.19	61.7	887.0	12.98	-39.9	0	0.4	56.9	63.0	0	258	0	0	146	74.1	60.7	0.0
2018 06/12 19:45	55.4	50.8	264.4	10.2	30.19	62.0	841.0	13.01	-40.0	0	0.3	56.0	62.4	0	258	0	0	146	73.4	60.4	0.0
2018 06/12 20:00	54.0	56.2	274.4	9.9	30.19	62.3	762.0	13.02	-40.0	0	0.4	54.2	61.4	0	258	0	0	146	72.5	60.2	0.0
2018 06/12 20:15	53.2	57.7	259.9	13.3	30.20	62.5	655.7	13.00	-40.0	0	0.2	53.3	60.3	0	258	0	0	146	71.7	59.9	0.0
2018 06/12 20:30	52.0	58.5	275.3	14.5	30.20	62.7	603.1	13.01	-39.9	0	0.4	52.4	59.3	0	258	0	0	146	71.1	59.6	0.0
2018 06/12 20:45	51.7	61.2	282.7	13.2	30.20	62.9	708.0	13.01	-40.1	0	0.4	51.5	58.2	0	258	0	0	146	70.3	59.3	0.0
2018 06/12 21:00	50.5	67.0	289.5	14.4	30.20	63.1	251.3	13.00	-40.1	0	0.5	49.7	57.3	0	258	0	0	146	69.5	59.1	0.0
2018 06/12 21:15	49.9	69.1	278.5	15.7	30.20	63.2	91.6	13.00	-39.8	0	0.5	48.8	56.5	0	258	0	0	146	68.7	58.7	0.0
2018 06/12 21:30	49.5	70.5	274.0	15.8	30.20	63.4	19.0	13.01	-39.9	0	0.6	47.9	55.8	0	258	0	0	146	68.2	58.5	0.0
2018 06/12 21:45	49.0	72.5	282.1	10.8	30.20	63.5	3.4	13.01	-40.1	0	0.5	47.0	54.7	0	258	0	0	146	67.4	58.2	0.0
2018 06/12 22:00	49.0	71.9	253.3	12.4	30.21	63.5	0.7	12.99	-39.8	0	0.3	47.0	54.6	0	258	0	0	146	66.7	57.9	0.0
2018 06/12 22:15	48.9	73.9	230.1	16.4	30.21	63.5	0.0	13.02	-39.9	0	0.5	47.0	53.9	0	258	0	0	146	65.9	57.6	0.0
2018 06/12 22:30	48.9	75.0	221.5	17.6	30.20	63.5	-0.3	13.01	-40.0	0	0.6	47.0	51.5	0	258	0	0	146	65.5	57.4	0.0
2018 06/12 22:45	48.8	76.2	239.8	20.2	30.20	63.3	0.0	12.98	-40.2	0	0.7	47.0	51.6	0	258	0	0	146	64.8	57.2	0.0
2018 06/12 23:00	48.6	76.6	237.4	20.8	30.19	63.2	0.0	12.99	-39.9	0	0.4	47.0	51.2	0	258	0	0	146	64.2	56.9	0.0
2018 06/12 23:15	48.2	77.5	238.4	18.8	30.19	63.0	0.0	13.01	-40.0	0	0.5	46.1	49.6	0	258	0	0	146	63.7	56.7	0.0
2018 06/12 23:30	48.2	77.0	239.2	21.1	30.18	62.8	0.0	13.01	-40.1	0	0.3	46.1	49.4	0	258	0	0	146	63.2	56.5	0.0
2018 06/12 23:45	47.8	78.0	237.1	21.5	30.18	62.6	0.0	13.02	-40.0	0	0.5	46.1	49.6	0	258	0	0	146	62.7	56.4	0.0
2018 06/13 00:00	47.9	79.4	237.0	22.8	30.17	62.4	0.0	13.01	-40.0	0	0.3	46.1	49.2	0	258	0	0	146	62.2	56.0	0.0
2018 06/13 00:15	47.0	83.5	236.6	19.6	30.17	62.2	-0.3	12.98	-40.1	0	0.6	46.1	49.6	0	258	0	0	146	61.7	55.9	0.0
2018 06/13 00:30	46.1	87.1	224.6	21.1	30.16	62.0	0.0	13.01	-40.0	0	0.4	46.1	50.8	0	258	0	0	146	61.4	55.7	0.0
2018 06/13 00:45	45.7	87.7	249.4	18.5	30.15	61.7	-0.3	12.99	-39.9	0	0.6	45.2	50.6	0	258	0	0	146	61.0	55.5	0.0
2018 06/13 01:00	45.4	89.0	237.9	19.3	30.14	61.4	0.0	13.00	-40.1	0	0.4	45.2	50.5	0	258	0	0	146	60.5	55.4	0.0
2018 06/13 01:15	44.8	90.8	197.6	21.8	30.14	61.1	0.0	12.98	-40.2	0	0.5	44.3	49.7	0	258	0	0	146	60.1	55.1	0.0
2018 06/13 01:30	44.1	92.5	220.9	20.8	30.13	60.8	-0.3	12.99	-40.1	0	0.6	43.4	49.3	0	258	0	0	146	59.9	55.0	0.0
2018 06/13 01:45	43.8	94.2	216.4	18.9	30.12	60.5	0.0	12.99	-40.1	0	0.5	43.4	48.5	0	258	0	0	146	59.5	54.8	0.0
2018 06/13 02:00	43.0	95.6	220.9	18.9	30.11	60.3	-0.3	13.01	-39.9	0	0.6	42.5	48.4	0	258	0	0	146	59.1	54.7	0.0
2018 06/13 02:15	43.0	96.1	223.7	19.2	30.11	60.0	0.0	12.99	-40.0	0	0.6	41.6	47.5	0	258	0	0	146	58.7	54.5	0.0
2018 06/13 02:30	42.4	97.4	249.7	17.4	30.10	59.7	0.0	13.01	-40.0	0	0.6	41.6	48.0	0	258	0	0	146	58.5	54.3	0.0
2018 06/13 02:45	42.2	96.5	246.0	18.1	30.09	59.4	0.0	12.99	-40.0	0	0.6	40.7	46.0	0	258	0	0	146	58.3	54.1	0.0
2018 06/13 03:00	42.2	93.7	242.9	16.7	30.09	59.1	-0.3	13.02	-40.0	0	0.4	40.7	44.5	0	258	0	0	146	57.9	54.0	0.0
2018 06/13 03:15	41.5	95.8	235.0	17.5	30.08	58.9	0.0	12.99	-39.9	0	0.2	40.7	45.1	0	258	0	0	146	57.6	53.8	0.0
2018 06/13 03:30	41.2	94.5	229.5	17.4	30.08	58.6	0.0	13.00	-40.1	0	0.5	40.7	46.1	0	258	0	0	146	57.4	53.7	0.0
2018 06/13 03:45	41.0	92.4	265.9	18.1	30.07	58.4	0.0	12.99	-40.0	0	0.7	39.8	46.3	0	258	0	0	146	57.0	53.4	0.0
2018 06/13 04:00	40.6	90.4	217.2	18.1	30.07	58.0	0.0	13.00	-40.0	0	0.4	39.8	45.3	0	258	0	0	146	56.7	53.3	0.0
2018 06/13 04:15	40.6	86.4	220.7	21.2	30.06	57.8	0.0	13.01	-40.0	0	0.6	38.9	44.4	0	258	0	0	146	56.4	53.1	0.0
2018 06/13 04:30	40.7	87.5	191.9	20.5	30.06	57.5	0.3	12.99	-39.9	0	0.7	38.9	45.0	0	258	0	0	146	56.1	52.9	0.0
2018 06/13 04:45	40.6	79.5	213.8	24.0	30.04	57.1	2.4	12.98	-40.0	0	0.7	38.9	46.5	0	258	0	0	146	55.8	52.7	0.0
2018 06/13 05:00	40.5	71.9	222.9	20.4	30.04	56.8	19.7	12.99	-40.1	0	0.5	39.8	46.1	0	258	0	0	146	55.5	52.5	0.0
2018 06/13 05:15	40.4	67.5	223.1	20.7	30.04	56.5	107.9	13.02	-40.0	0	0.7	38.9	45.1	0	258	0	0	146	55.1	52.3	0.0
2018 06/13 05:30	40.6	60.0	226.5	18.6	30.03	56.1	246.6	13.01	-40.0	0	0.7	38.9	46.0	0	258	0	0	146	54.9	52.2	0.0
2018 06/13 05:45	40.0	63.6	245.8	14.6	30.02	55.8	437.3	13.00	-39.9	0	0.7	39.8	46.2	0	258	0	0	146	54.8	52.1	0.0
2018 06/13 06:00	40.2	63.5	217.5	17.4	30.02	55.4	470.6	12.99	-40.0	0	0.4	40.7	46.7	0	258	0	0	146	54.6	52.0	0.0
2018 06/13 06:15	41.0	59.1	255.6	17.3	30.01	55.1	482.4	13.01	-39.8	0	0.4	40.7	46.7	0	258	0	0	146	54.5	51.7	0.0
2018 06/13 06:30	40.4	62.8	239.7	13.2	30.01	54.8	525.9	12.99	-40.0	0	0.4	40.7	46.7	0	258	0	0	146	54.5	51.6	0.0
2018 06/13 06:45	40.9	59.7	213.0	18.6	30.00	54.6	538.8	13.00	-40.0	0	0.6	40.7	46.6	0	258	0	0	146	54.3	51.5	0.0
2018 06/13 07:00	40.6	53.2	227.0	15.8	30.00	54.3	636.5	12.99	-40.0	0	0.5	40.7	46.5	0	258	0	0	146	54.2	51.4	0.0
2018 06/13 07:15	40.7	59.6	210.1	12.4	29.99	53.9	693.5	13.01	-40.0	0	0.4	41.6	46.9	0	258	0	0	146	54.1	51.3	0.0
2018 06/13 07:30	41.0	47.4	254.7	11.1	30.00	53.7	719.0	12.99	-40.0	0	0.6	41.6	47.1	0	258	0	0	146	54.1	51.2	0.0
2018 06/13 07:45	42.3	47.9	183.4	11.4	29.99	53.5	750.0	12.99	-40.0	0	0.4	42.5	47.5	0	258	0	0	146	54.1	51.1	0.0
2018 06/13 08:00	42.7	48.5	229.0	16.5	29.99	53.5	743.0	13.01	-39.8	0	0.4	42.5	47.6	0	258	0	0	146	54.2	51.1	0.0
2018 06/13 08:15	42.2	55.6	177.0	11.2	29.99	53.3	740.0	13.01	-39.9	0	0.3	42.5	47.6	0	258	0	0	146	54.3	51.0	0.0
2018 06/13 08:30	41.6	59.4	149.5	14.2	29.99	53.1	745.0	13.01	-39.9	0	0.5	41.6	47.5	0	258	0	0	146	54.5	51.0	0.0
2018 06/13 08:45	40.9	66.0	226.8	13.5	29.99	53.1	776.0	12.99	-40.0	0	0.4	42.5	47.2	0	258	0	0	146	54.6	50.9	0.0
2018 06/13 09:00	40.5	66.4	198.0	18.0	29.99	52.9	753.0	13.02	-40.0	0	0.4	41.6	47.4	0	258	0	0	146	54.7	50.9	0.0
2018 06/13 09:15	40.5	73.3	227.9	19.3	29.99	52.8	805.0	13.01	-40.2	0	0.6	42.5	48.0	0	258	0	0	146	54.7	50.7	0.0
2018 06/13 09:30	40.6	71.9	249.6	16.1	29.99	52.6	804.0	12.99	-40.0	0	0.4	43.4	48.8	0	258	0	0	146	54.8	50.7	0.0
2018 06/13 09:45	40.4	75.3	240.2	18.6	29.99	52.6	816.0	13.01	-40.0	0	0.6	42.5	48.4	0	258	0	0	146	54.9	50.7	0.0
2018 06/13 10:00	39.1	90.4	226.7	15.5	29.98	52.4	809.0	13.01	-40.1	0	0.5	41.6	47.8	0	258	0	0	146	55.0	50.7	0.0
2018 06/13 10:15	39.1	91.7	240.7	19.1	29.97	52.4	845.0	12.99	-40.0	0	0.4	42.5	47.6	0	258	0	0	146	55.0	50.7	0.0
2018 06/13 10:30	40.4	87.3	228.0	18.6	29.97	52.2	854.0	13.00	-40.0	0	0.2	42.5	48.3	0	258	0	0	146	55.1	50.7	0.0
2018 06/13 10:45	40.7	86.6	209.6	21.9	29.97	52.2	865.0	12.99	-40.1	0	0.5	43.4	49.5	0	258	0	0	146	55.4	50.9	0.0
2018 06/13 11:00	41.0	90.0	189.7	22.4	29.97	52.2	847.0	12.99	-40.0	0	0.3	44.3	49.9	0	258	0	0	146	55.7	51.1	0.0
2018 06/13 11:15	41.6	90.8	232.2	20.8	29.98	52.0	850.0	12.99	-40.0	0	0.4	44.3	50.6	0	258	0	0	146	56.1	51.3	0.0
2018 06/13 11:30	42.3	92.6	253.4	18.5	29.98	52.0	864.0	12.99	-40.1	0	0.5	45.2	51.1	0	258	0	0	146	56.4	51.5	0.0
2018 06/13 11:45	42.4	93.1	273.2	20.7	29.99	52.0	858.0	13.00	-40.0	0	0.7	46.1	51.9	0	258	0	0	146	56.8	51.7	0.0
2018 06/13 12:00	42.4	95.3	248.7	20.6	29.99	52.0	884.0	13.01	-39.9	0	0.0	47.0	53.1	0	258	0	0	146	57.4	52.0	0.0
2018 06/13 12:15	42.0	96.0	231.1	20.9	29.99	51.9	858.0	13.01	-40.1	0	0.3	46.1	52.6	0	258	0	0	146	57.9	52.5	0.0
2018 06/13 12:30	42.6	96.1	259.7	21.8	29.99	51.9	848.0	13.01	-39.9	0	0.1	46.1	52.3	0	258	0	0	146	58.5	52.8	0.0
2018 06/13 12:45	42.9	95.0	288.5	21.1	29.99	51.9	872.0	12.99	-39.9	0	0.6	47.0	52.6	0	258	0	0	146	59.0	53.0	0.0
2018 06/13 13:00	43.8	93.4	234.7	25.6	29.99	51.9	875.0	12.98	-40.1	0	-0.1	47.9	53.8	0	258	0	0	146	59.3	53.3	0.0
2018 06/13 13:15	45.4	89.1	256.5	18.4	29.99	52.0	875.0	12.99	-40.0	0	0.8	48.8	54.0	0	258	0	0	146	59.7	53.5	0.0
2018 06/13 13:30	44.5	91.5	272.4	26.6	29.98	52.0	852.0	12.99	-40.0	0	0.5	47.9	54.6	0	258	0	0	146	60.1	53.8	0.0
2018 06/13 13:45	44.9	89.6	229.7	26.4	29.98	52.0	878.0	12.99	-39.9	0	0.8	47.9	54.4	0	258	0	0	146	60.5	54.1	0.0
2018 06/13 14:00	45.6	87.0	207.9	21.2	29.99	52.0	871.0	12.99	-39.9	0	0.3	47.9	54.2	0	258	0	0	146	61.0	54.3	0.0
2018 06/13 14:15	45.9	82.4	222.1	36.6	29.98	52.0	894.0	13.00	-40.1	0	0.4	49.7	55.7	0	258	0	0	146	61.4	54.6	0.0
2018 06/13 14:30	47.0	82.3	232.0	20.7	29.99	52.1	864.0	13.00	-40.0	0	0.1	49.7	55.3	0	258	0	0	146	61.5	54.8	0.0
2018 06/13 14:45	46.1	76.7	224.1	27.9	29.99	52.2	860.0	13.01	-40.2	0	0.0	48.8	54.2	0	258	0	0	146	61.8	54.9	0.0
2018 06/13 15:00	46.8	78.9	237.0	24.5	29.99	52.2	894.0	12.99	-40.0	0	0.4	49.7	55.9	0	258	0	0	146	61.9	54.9	0.0
2018 06/13 15:15	46.8	75.3	246.2	29.5	29.99	52.2	869.0	13.00	-40.0	0	0.4	47.9	54.8	0	258	0	0	146	62.0	54.8	0.0
2018 06/13 15:30	46.5	76.5	225.1	24.2	29.99	52.4	878.0	13.01	-39.9	0	1.0	49.7	55.8	0	258	0	0	146	62.0	54.8	0.0
2018 06/13 15:45	46.6	76.8	201.3	19.5	29.99	52.4	863.0	13.01	-40.2	0	0.6	48.8	55.2	0	258	0	0	146	62.0	54.8	0.0
2018 06/13 16:00	48.1	75.9	293.3	15.1	29.99	52.5	885.0	13.01	-39.9	0	0.7	50.6	56.2	0	258	0	0	146	62.2	54.7	0.0
2018 06/13 16:15	47.7	78.4	285.8	10.5	29.99	52.6	879.0	13.00	-39.8	0	0.7	51.5	56.8	0	258	0	0	146	62.7	54.9	0.0
2018 06/13 16:30	47.5	76.6	259.6	21.9	29.99	52.9	900.0	13.00	-40.1	0	0.2	49.7	57.1	0	258	0	0	146	63.1	55.0	0.0
2018 06/13 16:45	45.7	81.8	242.5	21.2	29.99	53.0	883.0	13.00	-40.0	0	0.5	47.9	53.9	0	258	0	0	146	63.6	55.1	0.0
2018 06/13 17:00	45.7	83.3	235.7	16.4	30.00	53.1	901.0	13.00	-40.0	0	0.6	46.1	53.3	0	258	0	0	146	63.6	55.0	0.0
2018 06/13 17:15	45.3	82.2	275.8	21.6	30.00	53.3	888.0	13.01	-40.0	0	0.7	47.0	53.7	0	258	0	0	146	63.6	54.9	0.0
2018 06/13 17:30	44.6	83.7	289.6	16.4	30.00	53.5	953.0	13.00	-40.0	0	0.3	46.1	55.1	0	258	0	0	146	64.0	54.9	0.0
2018 06/13 17:45	44.3	83.9	346.9	11.8	30.00	53.7	933.0	13.02	-40.1	0	0.7	46.1	53.1	0	258	0	0	146	63.9	54.8	0.0
2018 06/13 18:00	43.4	86.2	275.9	16.0	30.00	53.9	778.0	12.99	-39.9	0	0.4	44.3	50.5	0	258	0	0	146	63.9	54.6	0.0
2018 06/13 18:15	42.7	88.5	285.2	15.5	30.00	54.1	957.0	13.02	-39.9	0	0.4	43.4	49.7	0	258	0	0	146	63.6	54.5	0.0
2018 06/13 18:30	42.0	88.4	266.3	18.6	30.01	54.4	818.0	12.99	-39.8	0	0.7	43.4	49.4	0	258	0	0	146	63.2	54.2	0.0
2018 06/13 18:45	41.1	89.8	206.9	23.1	30.01	54.6	749.0	12.99	-40.1	0	0.2	42.5	49.3	0	258	0	0	146	62.8	54.0	0.0
2018 06/13 19:00	40.6	93.1	280.6	13.7	30.01	54.8	786.0	13.01	-39.9	0	0.4	41.6	48.6	0	258	0	0	146	62.3	53.7	0.0
2018 06/13 19:15	40.0	93.0	244.9	18.2	30.02	54.8	719.0	12.98	-40.0	0	0.5	41.6	48.0	0	258	0	0	146	61.8	53.5	0.0
2018 06/13 19:30	39.9	93.7	252.8	12.7	30.02	55.0	695.8	13.00	-40.0	0	0.4	40.7	47.2	0	258	0	0	146	61.4	53.3	0.0
2018 06/13 19:45	39.4	94.5	213.5	14.0	30.03	55.0	502.5	13.01	-40.0	0	0.4	40.7	47.0	0	258	0	0	146	60.9	53.1	0.0
2018 06/13 20:00	39.1	96.3	250.6	12.4	30.03	55.2	472.3	13.03	-39.9	0	0.6	39.8	46.8	0	258	0	0	146	60.3	52.9	0.0
2018 06/13 20:15	39.0	92.6	305.1	15.1	30.03	55.2	560.8	12.99	-40.0	0	0.6	39.8	46.9	0	258	0	0	146	59.9	52.7	0.0
2018 06/13 20:30	39.0	85.6	266.6	11.9	30.04	55.2	323.0	13.02	-40.1	0	0.5	39.8	46.7	0	258	0	0	146	59.4	52.4	0.0
2018 06/13 20:45	38.7	87.1	269.1	11.9	30.04	55.2	178.5	12.99	-39.9	0	0.7	38.9	47.0	0	258	0	0	146	59.0	52.3	0.0
2018 06/13 21:00	38.3	91.6	293.2	10.7	30.04	55.2	68.5	13.01	-40.0	0	0.6	38.9	46.2	0	258	0	0	146	58.4	52.1	0.0
2018 06/13 21:15	38.0	93.4	256.3	14.9	30.04	55.2	21.0	13.01	-40.1	0	0.5	38.9	46.1	0	258	0	0	146	57.9	51.7	0.0
2018 06/13 21:30	37.9	97.6	272.7	13.5	30.05	55.2	1.0	13.01	-39.9	0	0.7	38.0	45.7	0	258	0	0	146	57.6	51.7	0.0
2018 06/13 21:45	38.0	99.4	275.1	12.1	30.05	55.1	0.0	12.99	-40.2	0	0.6	38.0	45.2	0	258	0	0	146	57.2	51.5	0.0
2018 06/13 22:00	37.9	99.7	279.1	12.0	30.05	55.0	0.0	12.99	-40.1	0	0.6	38.0	45.1	0	258	0	0	146	56.7	51.4	0.0
2018 06/13 22:15	37.7	99.9	241.8	12.8	30.05	55.0	-0.3	13.00	-39.9	0	0.7	37.1	44.7	0	258	0	0	146	56.4	51.2	0.0
2018 06/13 22:30	37.3	99.9	241.1	11.5	30.05	54.8	-0.3	13.00	-40.1	0	0.6	37.1	44.5	0	258	0	0	146	56.1	51.1	0.0
2018 06/13 22:45	37.0	100.0	283.6	9.9	30.06	54.8	0.0	13.03	-39.8	0	0.6	37.1	44.5	0	258	0	0	146	55.8	50.9	0.0
2018 06/13 23:00	37.0	100.0	242.8	16.4	30.06	54.6	0.0	13.01	-40.0	0	0.4	37.1	44.0	0	258	0	0	146	55.5	50.7	0.0
2018 06/13 23:15	36.5	100.2	331.2	9.4	30.06	54.5	0.0	13.00	-40.2	0	0.5	37.1	43.5	0	258	0	0	146	55.0	50.5	0.0
2018 06/13 23:30	36.5	100.2	247.3	13.3	30.05	54.4	0.0	13.02	-40.0	0	0.7	36.2	43.4	0	258	0	0	146	54.8	50.4	0.0
2018 06/13 23:45	36.0	100.4	268.0	12.2	30.05	54.1	0.0	13.01	-40.0	0	0.4	37.1	43.4	0	258	0	0	146	54.5	50.3	0.0
2018 06/14 00:00	35.9	100.4	248.4	18.0	30.04	54.1	0.0	13.03	-40.0	0	0.4	37.1	43.5	0	258	0	0	146	54.2	50.1	0.0
2018 06/14 00:15	35.9	99.7	236.7	14.8	30.04	53.9	-0.3	12.99	-40.0	0	0.4	37.1	43.5	0	258	0	0	146	54.0	50.0	0.0
2018 06/14 00:30	36.1	90.9	244.0	18.5	30.03	53.7	0.0	13.01	-39.8	0	0.4	37.1	43.6	0	258	0	0	146	53.8	49.8	0.0
2018 06/14 00:45	36.3	89.0	235.4	19.5	30.02	53.5	0.0	13.01	-40.0	0	0.4	37.1	43.4	0	258	0	0	146	53.5	49.8	0.0
2018 06/14 01:00	36.1	92.8	253.1	13.8	30.02	53.3	-0.3	12.99	-40.1	0	0.4	37.1	43.2	0	258	0	0	146	53.3	49.6	0.0
2018 06/14 01:15	36.2	94.7	259.1	11.2	30.03	53.1	0.0	12.99	-40.0	0	0.6	36.2	43.0	0	258	0	0	146	53.1	49.5	0.0
2018 06/14 01:30	35.7	96.5	233.8	10.9	30.02	52.9	-0.3	12.99	-40.1	0	0.6	36.2	43.0	0	258	0	0	146	53.0	49.4	0.0
2018 06/14 01:45	35.6	98.3	293.5	10.9	30.02	52.6	0.0	13.01	-40.0	0	0.6	36.2	43.1	0	258	0	0	146	52.8	49.3	0.0
2018 06/14 02:00	35.4	99.7	260.9	11.3	30.02	52.4	-0.3	13.01	-40.0	0	0.4	36.2	43.2	0	258	0	0	146	52.5	49.2	0.0
2018 06/14 02:15	35.7	99.9	260.0	11.8	30.02	52.2	0.0	12.99	-39.9	0	0.6	36.2	42.5	0	258	0	0	146	52.4	49.0	0.0
2018 06/14 02:30	36.0	100.1	224.1	14.8	30.02	52.0	-0.3	13.00	-40.1	0	0.6	36.2	42.7	0	258	0	0	146	52.2	48.9	0.0
2018 06/14 02:45	36.1	100.3	262.2	13.1	30.02	51.8	0.0	12.99	-40.0	0	0.6	36.2	42.6	0	258	0	0	146	52.1	48.8	0.0
2018 06/14 03:00	36.1	100.2	206.8	7.3	30.02	51.6	0.0	13.00	-40.2	0	0.6	36.2	42.9	0	258	0	0	146	51.9	48.7	0.0
2018 06/14 03:15	36.1	100.3	273.7	10.7	30.02	51.4	0.0	13.02	-39.9	0	0.6	36.2	42.7	0	258	0	0	146	51.7	48.6	0.0
2018 06/14 03:30	36.2	100.4	278.6	8.8	30.02	51.4	0.0	13.01	-39.9	0	0.6	36.2	42.6	0	258	0	0	146	51.5	48.6	0.0
2018 06/14 03:45	36.3	100.2	277.4	7.1	30.02	51.1	0.0	13.00	-39.8	0	0.4	36.2	42.7	0	258	0	0	146	51.4	48.5	0.0
2018 06/14 04:00	36.3	100.4	262.3	9.4	30.02	50.9	0.0	13.00	-40.1	0	0.6	36.2	43.0	0	258	0	0	146	51.3	48.4	0.0
2018 06/14 04:15	36.1	100.3	187.8	8.2	30.01	50.7	0.0	12.99	-39.9	0	0.6	36.2	42.5	0	258	0	0	146	51.1	48.4	0.0
2018 06/14 04:30	36.0	100.4	307.8	11.1	30.01	50.6	0.0	12.99	-39.9	0	0.4	36.2	42.4	0	258	0	0	146	51.0	48.3	0.0
2018 06/14 04:45	36.1	100.4	277.4	7.2	30.01	50.5	0.3	12.99	-39.9	0	0.5	36.2	42.5	0	258	0	0	146	50.9	48.2	0.0
2018 06/14 05:00	36.0	100.4	261.7	5.8	30.01	50.3	13.2	13.01	-39.9	0	0.6	35.3	42.0	0	258	0	0	146	50.6	48.2	0.0
2018 06/14 05:15	35.6	100.4	271.8	8.7	30.01	50.1	79.4	13.01	-40.0	0	0.6	35.3	42.1	0	258	0	0	146	50.5	48.0	0.0
2018 06/14 05:30	35.9	100.4	278.6	7.9	30.01	49.9	292.1	13.00	-40.0	0	0.6	35.3	42.3	0	258	0	0	146	50.4	47.9	0.0
2018 06/14 05:45	36.0	100.4	215.5	7.3	30.01	49.9	374.2	13.00	-39.8	0	0.6	35.3	42.0	0	258	0	0	146	50.3	47.8	0.0
2018 06/14 06:00	35.9	100.5	255.1	9.5	30.01	49.7	598.6	12.99	-40.1	0	0.6	35.3	42.3	0	258	0	0	146	50.1	47.8	0.0
2018 06/14 06:15	35.6	100.6	265.3	8.1	30.01	49.5	676.6	13.00	-40.0	0	0.6	35.3	42.1	0	258	0	0	146	50.1	47.7	0.0
2018 06/14 06:30	35.7	100.5	267.6	9.3	30.01	49.4	617.8	12.98	-40.1	0	0.6	35.3	42.2	0	258	0	0	146	50.0	47.7	0.0
2018 06/14 06:45	35.6	100.6	272.6	4.8	30.00	49.3	646.0	12.98	-40.0	0	0.4	36.2	42.4	0	258	0	0	146	50.0	47.6	0.0
2018 06/14 07:00	35.5	100.6	287.3	6.8	30.01	49.0	688.4	12.99	-39.9	0	0.5	36.2	42.4	0	258	0	0	146	49.8	47.5	0.0
2018 06/14 07:15	35.7	100.6	283.4	8.6	30.01	49.0	716.0	13.00	-40.0	0	0.4	36.2	42.6	0	258	0	0	146	49.8	47.5	0.0
2018 06/14 07:30	35.5	100.6	310.5	10.8	30.00	48.8	753.0	13.00	-40.2	0	0.6	36.2	42.7	0	258	0	0	146	49.7	47.5	0.0
2018 06/14 07:45	35.7	100.6	285.2	8.5	30.01	48.7	765.0	13.01	-40.0	0	0.4	37.1	43.1	0	258	0	0	146	49.8	47.4	0.0
2018 06/14 08:00	35.1	100.7	273.9	7.9	30.01	48.6	747.0	13.01	-39.8	0	0.5	37.1	43.1	0	258	0	0	146	49.8	47.4	0.0
2018 06/14 08:15	35.9	100.5	297.6	9.4	30.01	48.4	777.0	12.98	-40.0	0	0.6	37.1	43.6	0	258	0	0	146	50.0	47.4	0.0
2018 06/14 08:30	36.0	100.7	296.0	7.7	30.02	48.3	762.0	13.01	-39.9	0	0.3	38.0	43.4	0	258	0	0	146	50.1	47.4	0.0
2018 06/14 08:45	35.9	100.5	250.9	6.5	30.01	48.2	799.0	13.00	-40.1	0	0.7	38.0	44.2	0	258	0	0	146	50.2	47.4	0.0
2018 06/14 09:00	36.0	100.5	248.1	7.5	30.02	48.2	827.0	12.99	-39.9	0	0.4	39.8	45.9	0	258	0	0	146	50.5	47.5	0.0
2018 06/14 09:15	36.4	100.4	311.2	7.3	30.02	48.0	850.0	12.99	-39.9	0	0.6	39.8	45.3	0	258	0	0	146	51.1	47.7	0.0
2018 06/14 09:30	37.9	100.4	254.6	6.6	30.02	48.0	839.0	12.99	-40.1	0	0.7	41.6	45.7	0	258	0	0	146	51.5	47.8	0.0
2018 06/14 09:45	37.1	95.6	312.0	14.5	30.02	48.0	860.0	12.98	-40.0	0	0.0	42.5	46.0	0	258	0	0	146	52.3	48.2	0.0
2018 06/14 10:00	38.9	91.3	282.4	4.7	30.02	47.9	846.0	12.99	-40.0	0	0.7	41.6	46.8	0	258	0	0	146	53.0	48.4	0.0
2018 06/14 10:15	38.9	88.4	280.0	10.1	30.02	47.9	854.0	13.01	-40.0	0	0.1	43.4	47.5	0	258	0	0	146	53.7	48.6	0.0
2018 06/14 10:30	39.6	89.2	285.3	5.1	30.02	47.8	847.0	12.98	-40.0	0	-0.4	44.3	48.3	0	258	0	0	146	54.2	48.7	0.0
2018 06/14 10:45	39.9	84.2	337.4	11.4	30.02	47.9	854.0	12.98	-40.1	0	1.0	43.4	48.9	0	258	0	0	146	55.0	49.2	0.0
2018 06/14 11:00	42.3	81.8	275.4	8.5	30.02	48.0	854.0	13.00	-40.0	0	0.6	44.3	49.7	0	258	0	0	146	55.9	49.8	0.0
2018 06/14 11:15	41.8	85.2	254.7	6.8	30.03	48.0	858.0	12.98	-40.0	0	0.6	46.1	50.3	0	258	0	0	146	57.0	50.5	0.0
2018 06/14 11:30	43.2	77.6	302.3	8.5	30.03	48.0	854.0	13.00	-40.1	0	-0.0	46.1	51.3	0	258	0	0	146	58.0	51.2	0.0
2018 06/14 11:45	43.8	75.1	272.0	6.7	30.03	48.2	857.0	12.98	-40.0	0	-0.1	47.9	52.2	0	258	0	0	146	59.6	52.0	0.0
2018 06/14 12:00	43.8	76.7	282.0	7.3	30.03	48.2	863.0	13.01	-40.0	0	0.6	49.7	53.1	0	258	0	0	146	61.0	52.9	0.0
2018 06/14 12:15	47.5	64.8	324.7	7.7	30.03	48.4	858.0	13.00	-39.8	0	0.7	48.8	53.2	0	258	0	0	146	62.4	53.2	0.0
2018 06/14 12:30	47.3	67.8	260.1	11.3	30.03	48.5	880.0	13.01	-40.0	0	0.4	48.8	54.2	0	258	0	0	146	63.5	53.5	0.0
2018 06/14 12:45	47.7	63.2	317.1	9.8	30.04	48.6	879.0	12.98	-40.0	0	0.9	52.4	54.8	0	258	0	0	146	64.1	54.3	0.0
2018 06/14 13:00	48.3	64.5	310.4	10.6	30.03	48.8	883.0	12.98	-40.2	0	0.1	50.6	55.6	0	258	0	0	146	65.1	54.6	0.0
2018 06/14 13:15	50.1	61.9	292.4	5.6	30.03	48.9	881.0	13.01	-39.9	0	-0.2	52.4	56.8	0	258	0	0	146	66.0	54.9	0.0
2018 06/14 13:30	49.3	60.3	312.4	5.6	30.03	49.0	875.0	13.01	-39.9	0	1.1	52.4	57.1	0	258	0	0	146	66.6	55.2	0.0
2018 06/14 13:45	50.3	58.0	317.0	9.3	30.03	49.2	869.0	12.99	-40.2	0	1.1	52.4	57.4	0	258	0	0	146	67.5	55.6	0.0
2018 06/14 14:00	52.2	63.9	251.8	9.4	30.03	49.5	877.0	13.00	-40.0	0	0.5	52.4	57.6	0	258	0	0	146	68.2	55.9	0.0
2018 06/14 14:15	50.5	61.4	304.2	5.6	30.04	49.7	879.0	13.02	-40.1	0	0.6	53.3	58.4	0	258	0	0	146	68.4	56.0	0.0
2018 06/14 14:30	53.2	51.5	310.3	8.1	30.04	49.9	874.0	12.99	-39.9	0	0.5	54.2	60.3	0	258	0	0	146	68.5	56.0	0.0
2018 06/14 14:45	51.2	58.8	250.9	9.9	30.03	50.1	876.0	13.00	-39.9	0	0.7	54.2	59.8	0	258	0	0	146	68.7	56.1	0.0
2018 06/14 15:00	52.0	58.6	328.6	7.7	30.03	50.3	881.0	12.99	-39.9	0	0.7	56.9	60.0	0	258	0	0	146	69.2	56.1	0.0
2018 06/14 15:15	52.2	59.3	323.8	14.1	30.03	50.5	885.0	13.01	-40.0	0	0.6	55.1	60.2	0	258	0	0	146	69.4	56.1	0.0
2018 06/14 15:30	52.1	58.9	295.4	11.3	30.03	50.9	883.0	12.99	-39.9	0	0.5	55.1	61.1	0	258	0	0	146	69.8	56.2	0.0
2018 06/14 15:45	51.9	57.8	284.7	12.6	30.04	51.1	887.0	13.02	-39.9	0	0.0	56.0	60.1	0	258	0	0	146	70.2	56.4	0.0
2018 06/14 16:00	52.2	59.3	286.6	10.9	30.04	51.4	875.0	12.99	-39.8	0	-0.2	54.2	59.4	0	258	0	0	146	70.2	56.5	0.0
2018 06/14 16:15	50.9	62.6	280.4	8.0	30.04	51.7	869.0	13.02	-40.1	0	0.6	52.4	58.0	0	258	0	0	146	70.0	56.6	0.0
2018 06/14 16:30	50.3	66.8	269.0	8.2	30.03	52.0	879.0	13.00	-40.1	0	0.5	52.4	58.5	0	258	0	0	146	70.1	56.5	0.0
2018 06/14 16:45	49.9	68.5	272.4	15.2	30.03	52.4	879.0	13.01	-39.9	0	0.0	53.3	58.2	0	258	0	0	146	70.1	56.4	0.0
2018 06/14 17:00	48.9	70.6	292.9	15.2	30.03	52.6	885.0	13.00	-39.9	0	0.4	51.5	57.3	0	258	0	0	146	69.9	56.4	0.0
2018 06/14 17:15	48.9	70.0	283.1	14.0	30.03	53.1	896.0	13.01	-40.1	0	0.4	51.5	57.4	0	258	0	0	146	69.9	56.4	0.0
2018 06/14 17:30	50.0	71.2	285.0	12.0	30.04	53.3	948.0	13.01	-40.0	0	0.5	52.4	58.9	0	258	0	0	146	69.8	56.4	0.0
2018 06/14 17:45	49.6	71.1	279.8	8.8	30.04	53.7	938.0	13.01	-40.0	0	0.6	50.6	58.8	0	258	0	0	146	70.0	56.5	0.0
2018 06/14 18:00	49.0	71.9	296.5	13.2	30.04	54.0	940.0	12.99	-40.0	0	0.2	50.6	57.5	0	258	0	0	146	69.9	56.5	0.0
2018 06/14 18:15	49.0	74.3	251.0	8.7	30.04	54.4	946.0	13.00	-40.0	0	0.4	49.7	57.0	0	258	0	0	146	69.3	56.4	0.0
2018 06/14 18:30	47.8	74.5	282.5	12.6	30.04	54.8	894.0	13.01	-39.9	0	0.4	49.7	56.2	0	258	0	0	146	69.1	56.4	0.0
2018 06/14 18:45	49.8	72.8	317.6	12.0	30.04	55.0	890.0	13.01	-40.0	0	0.7	50.6	58.6	0	258	0	0	146	68.7	56.2	0.0
2018 06/14 19:00	48.5	75.4	247.7	14.4	30.04	55.2	962.0	12.99	-40.0	0	0.4	48.8	56.2	0	258	0	0	146	68.2	56.1	0.0
2018 06/14 19:15	47.7	78.6	273.2	12.1	30.04	55.6	918.0	12.99	-40.2	0	0.6	47.0	55.0	0	258	0	0	146	67.7	55.9	0.0
2018 06/14 19:30	47.8	80.1	298.9	8.3	30.05	55.9	961.0	12.99	-39.9	0	0.1	47.9	54.0	0	258	0	0	146	67.3	55.8	0.0
2018 06/14 19:45	46.5	81.0	295.8	6.8	30.05	56.3	959.0	13.00	-39.9	0	0.4	47.0	53.0	0	258	0	0	146	66.6	55.6	0.0
2018 06/14 20:00	45.5	84.3	344.6	11.7	30.05	56.5	956.0	13.01	-40.0	0	0.5	45.2	52.1	0	258	0	0	146	65.9	55.2	0.0
2018 06/14 20:15	43.9	87.9	286.4	12.5	30.05	56.7	949.0	13.01	-39.8	0	0.4	44.3	51.2	0	258	0	0	146	65.1	55.0	0.0
2018 06/14 20:30	42.7	91.9	286.5	13.8	30.05	57.0	783.0	13.01	-40.0	0	0.3	43.4	50.5	0	258	0	0	146	64.5	54.9	0.0
2018 06/14 20:45	42.0	94.5	296.0	10.4	30.05	57.3	864.0	13.02	-39.9	0	0.5	42.5	49.6	0	258	0	0	146	63.8	54.7	0.0
2018 06/14 21:00	41.1	97.3	259.9	10.0	30.06	57.5	285.0	12.99	-40.1	0	0.5	40.7	48.5	0	258	0	0	146	63.1	54.3	0.0
2018 06/14 21:15	40.4	98.8	286.2	9.5	30.06	57.7	70.6	13.02	-40.0	0	0.7	39.8	47.9	0	258	0	0	146	62.2	54.1	0.0
2018 06/14 21:30	40.0	99.7	281.9	9.5	30.06	57.8	5.4	13.02	-40.1	0	0.6	39.8	47.6	0	258	0	0	146	61.7	53.9	0.0
2018 06/14 21:45	39.6	99.9	299.1	11.7	30.06	58.0	0.3	13.03	-40.0	0	0.6	39.8	47.0	0	258	0	0	146	60.9	53.7	0.0
2018 06/14 22:00	39.3	99.9	295.8	10.6	30.06	58.1	0.0	13.02	-39.9	0	0.6	38.9	46.9	0	258	0	0	146	60.3	53.3	0.0
2018 06/14 22:15	39.3	100.2	278.1	11.1	30.06	58.2	0.0	12.99	-40.0	0	0.6	38.0	46.1	0	258	0	0	146	59.6	53.1	0.0
2018 06/14 22:30	38.9	100.2	279.4	10.4	30.05	58.2	0.0	12.99	-40.0	0	0.4	38.0	45.6	0	258	0	0	146	59.2	52.9	0.0
2018 06/14 22:45	38.8	100.2	284.2	13.4	30.05	58.2	0.0	13.00	-40.0	0	0.5	37.1	45.2	0	258	0	0	146	58.5	52.7	0.0
2018 06/14 23:00	38.5	100.4	277.7	12.7	30.04	58.2	0.0	12.99	-40.0	0	0.4	37.1	45.1	0	258	0	0	146	57.9	52.4	0.0
2018 06/14 23:15	38.3	100.3	290.7	11.1	30.04	58.2	0.0	13.02	-40.0	0	0.3	37.1	44.4	0	258	0	0	146	57.5	52.2	0.0
2018 06/14 23:30	38.3	100.2	292.3	11.7	30.04	58.2	0.0	12.99	-40.1	0	0.7	36.2	44.3	0	258	0	0	146	57.0	52.0	0.0
2018 06/14 23:45	37.8	100.4	295.0	10.0	30.04	58.0	0.0	12.99	-40.0	0	0.6	36.2	43.9	0	258	0	0	146	56.5	51.7	0.0
2018 06/15 00:00	37.7	100.4	277.8	13.9	30.03	58.0	0.0	13.00	-40.0	0	0.7	36.2	43.8	0	258	0	0	146	56.1	51.5	0.0
2018 06/15 00:15	37.6	100.4	276.8	14.4	30.02	57.9	0.0	12.99	-40.0	0	0.5	37.1	43.8	0	258	0	0	146	55.7	51.4	0.0
2018 06/15 00:30	37.6	100.5	262.3	15.3	30.02	57.8	-0.3	12.99	-40.1	0	0.7	36.2	44.1	0	258	0	0	146	55.5	51.2	0.0
2018 06/15 00:45	38.0	100.4	262.3	16.7	30.02	57.6	0.0	13.01	-40.0	0	0.7	36.2	42.9	0	258	0	0	146	55.0	51.1	0.0
2018 06/15 01:00	37.8	100.4	255.0	14.9	30.01	57.6	-0.3	13.01	-39.9	0	0.6	36.2	42.7	0	258	0	0	146	54.8	50.9	0.0
2018 06/15 01:15	37.7	100.4	258.7	13.9	30.00	57.4	0.0	12.99	-40.0	0	0.6	36.2	42.9	0	258	0	0	146	54.5	50.7	0.0
2018 06/15 01:30	37.3	100.4	251.7	15.4	30.00	57.1	-0.3	12.99	-40.1	0	0.6	36.2	42.5	0	258	0	0	146	54.2	50.6	0.0
2018 06/15 01:45	37.3	100.2	265.7	13.2	30.00	56.9	-0.3	13.00	-39.9	0	0.7	36.2	42.7	0	258	0	0	146	53.9	50.4	0.0
2018 06/15 02:00	37.1	100.4	272.8	13.2	29.99	56.7	0.0	13.01	-40.0	0	0.5	37.1	43.1	0	258	0	0	146	53.5	50.3	0.0
2018 06/15 02:15	36.8	100.5	273.9	14.4	29.99	56.5	0.0	13.00	-39.9	0	0.7	36.2	43.2	0	258	0	0	146	53.4	50.2	0.0
2018 06/15 02:30	36.8	100.5	257.5	14.6	29.98	56.3	-0.3	13.01	-39.9	0	0.7	36.2	43.2	0	258	0	0	146	53.2	50.1	0.0
2018 06/15 02:45	36.8	100.4	266.7	14.4	29.98	56.1	0.0	13.01	-40.0	0	0.7	36.2	43.2	0	258	0	0	146	53.0	50.0	0.0
2018 06/15 03:00	36.7	100.4	276.6	15.7	29.97	55.9	-0.3	13.01	-40.0	0	0.7	36.2	43.0	0	258	0	0	146	52.8	49.8	0.0
2018 06/15 03:15	36.2	100.5	279.7	15.1	29.97	55.6	-0.3	13.01	-40.1	0	0.7	36.2	42.9	0	258	0	0	146	52.5	49.7	0.0
2018 06/15 03:30	36.2	100.6	277.6	12.8	29.96	55.4	0.0	12.99	-40.2	0	0.7	36.2	43.0	0	258	0	0	146	52.3	49.6	0.0
2018 06/15 03:45	36.2	100.6	272.3	13.2	29.96	55.2	0.0	12.99	-40.0	0	0.6	36.2	42.6	0	258	0	0	146	52.1	49.5	0.0
2018 06/15 04:00	35.9	100.6	272.0	14.1	29.95	55.0	0.0	13.01	-40.0	0	0.7	35.3	42.4	0	258	0	0	146	51.9	49.4	0.0
2018 06/15 04:15	35.7	100.7	279.3	11.4	29.95	54.8	0.0	13.01	-39.9	0	0.6	35.3	42.3	0	258	0	0	146	51.6	49.3	0.0
2018 06/15 04:30	35.6	100.7	264.7	13.3	29.95	54.6	0.0	13.01	-39.9	0	0.6	35.3	41.8	0	258	0	0	146	51.5	49.2	0.0
2018 06/15 04:45	35.7	100.7	279.4	15.5	29.94	54.5	2.4	12.99	-39.9	0	0.6	35.3	41.8	0	258	0	0	146	51.3	49.0	0.0
2018 06/15 05:00	35.5	100.8	278.9	14.8	29.94	54.3	19.0	13.02	-40.0	0	0.6	35.3	41.8	0	258	0	0	146	51.1	48.9	0.0
2018 06/15 05:15	35.5	100.6	269.1	15.2	29.94	54.1	103.5	12.98	-40.0	0	0.6	35.3	41.7	0	258	0	0	146	50.9	48.7	0.0
2018 06/15 05:30	35.1	100.7	289.1	15.7	29.93	53.9	294.8	13.00	-40.1	0	0.6	35.3	41.8	0	258	0	0	146	50.6	48.6	0.0
2018 06/15 05:45	35.2	100.7	280.9	15.7	29.93	53.7	475.0	13.00	-39.8	0	0.6	35.3	42.0	0	258	0	0	146	50.5	48.5	0.0
2018 06/15 06:00	35.1	100.8	300.0	12.5	29.93	53.5	545.2	13.01	-39.9	0	0.6	35.3	42.1	0	258	0	0	146	50.3	48.4	0.0
2018 06/15 06:15	34.8	100.8	306.9	14.5	29.93	53.3	609.0	12.98	-40.1	0	0.6	35.3	42.1	0	258	0	0	146	50.2	48.3	0.0
2018 06/15 06:30	34.9	100.8	274.2	12.4	29.93	53.1	708.0	12.98	-40.0	0	0.6	35.3	42.1	0	258	0	0	146	50.1	48.2	0.0
2018 06/15 06:45	34.6	100.8	287.3	11.5	29.92	53.0	724.0	13.01	-40.1	0	0.4	36.2	41.8	0	258	0	0	146	50.0	48.2	0.0
2018 06/15 07:00	34.6	100.8	274.8	11.9	29.92	52.8	799.0	13.00	-39.9	0	0.5	36.2	42.4	0	258	0	0	146	50.0	48.0	0.0
2018 06/15 07:15	34.9	100.8	273.5	10.8	29.92	52.6	831.0	13.01	-39.9	0	0.4	36.2	42.1	0	258	0	0	146	50.0	48.0	0.0
2018 06/15 07:30	34.4	100.9	268.3	11.8	29.92	52.4	852.0	13.00	-39.9	0	0.6	37.1	42.4	0	258	0	0	146	50.0	47.9	0.0
2018 06/15 07:45	34.4	100.8	271.1	10.7	29.91	52.2	848.0	13.00	-40.0	0	0.4	37.1	43.0	0	258	0	0	146	50.0	47.9	0.0
2018 06/15 08:00	34.8	100.8	271.6	10.6	29.92	52.1	862.0	13.00	-40.1	0	0.4	37.1	43.0	0	258	0	0	146	50.1	47.9	0.0
2018 06/15 08:15	34.8	100.8	274.9	10.4	29.92	52.0	866.0	13.01	-39.9	0	0.2	37.1	42.5	0	258	0	0	146	50.3	47.9	0.0
2018 06/15 08:30	35.0	100.8	280.8	10.8	29.92	51.9	848.0	12.99	-40.0	0	0.5	38.0	43.3	0	258	0	0	146	50.4	47.9	0.0
2018 06/15 08:45	34.4	100.8	278.5	10.8	29.92	51.8	866.0	13.02	-40.2	0	0.6	38.9	43.2	0	258	0	0	146	50.6	48.0	0.0
2018 06/15 09:00	35.6	100.7	278.3	8.7	29.91	51.8	866.0	12.98	-40.0	0	0.6	38.0	44.2	0	258	0	0	146	51.1	48.3	0.0
2018 06/15 09:15	35.9	100.5	270.2	9.1	29.92	51.6	845.0	13.00	-39.9	0	0.7	39.8	44.4	0	258	0	0	146	51.6	48.4	0.0
2018 06/15 09:30	37.2	100.6	285.2	6.7	29.92	51.6	841.0	12.99	-40.0	0	-0.1	42.5	45.4	0	258	0	0	146	52.1	48.5	0.0
2018 06/15 09:45	37.7	100.4	293.5	6.8	29.92	51.6	842.0	13.02	-39.9	0	0.4	42.5	46.7	0	258	0	0	146	52.5	48.7	0.0
2018 06/15 10:00	37.8	100.6	354.1	8.2	29.92	51.6	841.0	13.02	-39.8	0	0.9	42.5	46.7	0	258	0	0	146	53.1	48.9	0.0
2018 06/15 10:15	39.1	100.6	298.2	6.6	29.92	51.6	846.0	13.01	-40.1	0	0.5	42.5	47.9	0	258	0	0	146	53.8	49.2	0.0
2018 06/15 10:30	39.3	100.6	271.8	7.8	29.92	51.6	850.0	12.99	-40.1	0	0.4	42.5	48.5	0	258	0	0	146	54.3	49.3	0.0
2018 06/15 10:45	40.1	97.0	314.7	10.5	29.92	51.6	852.0	13.02	-40.1	0	0.2	44.3	49.2	0	258	0	0	146	55.4	49.7	0.0
2018 06/15 11:00	41.0	94.9	308.3	9.4	29.92	51.6	854.0	12.99	-39.9	0	0.4	44.3	49.4	0	258	0	0	146	56.2	50.6	0.0
2018 06/15 11:15	41.3	94.0	309.4	10.4	29.93	51.6	856.0	13.02	-39.9	0	0.6	45.2	50.3	0	258	0	0	146	57.5	51.4	0.0
2018 06/15 11:30	42.9	91.1	299.8	8.2	29.93	51.8	857.0	13.00	-40.0	0	-0.0	48.8	51.6	0	258	0	0	146	58.7	51.9	0.0
2018 06/15 11:45	43.4	91.6	269.5	9.9	29.93	51.8	858.0	13.01	-40.0	0	0.5	49.7	51.7	0	258	0	0	146	60.2	52.7	0.0
2018 06/15 12:00	44.0	81.6	301.7	10.9	29.93	51.8	857.0	12.99	-40.0	0	0.6	48.8	52.3	0	258	0	0	146	61.7	53.3	0.0
2018 06/15 12:15	44.3	77.8	273.1	9.7	29.94	52.0	858.0	12.99	-39.8	0	0.0	48.8	53.4	0	258	0	0	146	62.9	53.9	0.0
2018 06/15 12:30	45.0	78.1	310.4	11.2	29.94	52.0	858.0	13.00	-40.0	0	0.1	49.7	55.5	0	258	0	0	146	63.8	54.1	0.0
2018 06/15 12:45	45.9	76.3	293.9	9.3	29.94	52.2	858.0	13.02	-40.2	0	0.2	50.6	54.4	0	258	0	0	146	64.7	54.8	0.0
2018 06/15 13:00	47.7	72.4	221.5	9.8	29.94	52.2	858.0	13.01	-40.1	0	0.6	50.6	55.1	0	258	0	0	146	65.6	55.1	0.0
2018 06/15 13:15	48.2	67.6	291.6	10.0	29.95	52.4	856.0	13.02	-40.1	0	1.7	53.3	56.0	0	258	0	0	146	66.3	55.6	0.0
2018 06/15 13:30	48.7	66.4	281.4	11.5	29.95	52.4	853.0	13.02	-39.9	0	0.0	51.5	56.2	0	258	0	0	146	66.8	55.7	0.0
2018 06/15 13:45	48.1	70.8	243.9	10.5	29.95	52.6	855.0	12.99	-40.1	0	0.5	52.4	58.0	0	258	0	0	146	67.4	55.9	0.0
2018 06/15 14:00	48.1	73.4	305.5	8.2	29.95	52.7	855.0	13.01	-40.0	0	0.7	53.3	57.4	0	258	0	0	146	67.8	56.0	0.0
2018 06/15 14:15	49.6	63.4	294.7	11.3	29.96	52.9	858.0	12.98	-40.0	0	0.6	53.3	58.3	0	258	0	0	146	68.1	56.2	0.0
2018 06/15 14:30	49.9	62.4	322.9	14.9	29.95	53.1	858.0	13.01	-40.0	0	0.0	53.3	59.1	0	258	0	0	146	68.1	56.2	0.0
2018 06/15 14:45	49.9	57.1	316.1	13.2	29.95	53.1	861.0	12.98	-40.0	0	0.5	53.3	59.1	0	258	0	0	146	68.4	56.2	0.0
2018 06/15 15:00	51.2	59.8	214.5	8.1	29.96	53.3	863.0	13.00	-39.9	0	0.0	54.2	59.2	0	258	0	0	146	68.6	56.2	0.0
2018 06/15 15:15	50.5	55.0	269.6	11.5	29.96	53.5	865.0	12.99	-40.2	0	0.7	53.3	59.2	0	258	0	0	146	68.6	56.2	0.0
2018 06/15 15:30	51.0	61.4	221.4	7.7	29.96	53.7	866.0	13.01	-40.0	0	0.2	53.3	58.6	0	258	0	0	146	68.6	56.2	0.0
2018 06/15 15:45	50.5	62.4	314.9	12.4	29.95	53.9	862.0	13.02	-40.0	0	0.9	52.4	59.5	0	258	0	0	146	69.0	56.4	0.0
2018 06/15 16:00	52.0	61.8	264.6	8.7	29.96	54.1	862.0	12.99	-39.9	0	0.7	52.4	58.8	0	258	0	0	146	69.3	56.4	0.0
2018 06/15 16:15	49.5	60.4	349.7	13.7	29.96	54.4	865.0	13.01	-40.0	0	0.1	52.4	59.7	0	258	0	0	146	69.8	56.4	0.0
2018 06/15 16:30	51.6	62.7	304.7	8.0	29.97	54.6	871.0	13.02	-40.0	0	0.2	52.4	60.1	0	258	0	0	146	69.8	56.4	0.0
2018 06/15 16:45	50.0	64.0	289.4	15.7	29.97	54.8	865.0	13.01	-40.0	0	0.0	52.4	58.7	0	258	0	0	146	70.2	56.5	0.0
2018 06/15 17:00	50.0	68.3	245.0	11.4	29.97	55.0	871.0	13.01	-39.9	0	0.5	52.4	58.4	0	258	0	0	146	70.8	56.5	0.0
2018 06/15 17:15	50.0	65.8	286.2	14.0	29.97	55.3	907.0	13.00	-40.0	0	0.4	51.5	58.2	0	258	0	0	146	71.0	56.5	0.0
2018 06/15 17:30	49.9	66.7	290.3	9.1	29.97	55.6	951.0	13.00	-39.9	0	0.4	51.5	58.8	0	258	0	0	146	71.0	56.5	0.0
2018 06/15 17:45	47.9	69.2	328.5	14.4	29.97	56.0	960.0	13.00	-40.1	0	0.4	51.5	58.8	0	258	0	0	146	71.1	56.6	0.0
2018 06/15 18:00	49.4	67.7	243.4	12.8	29.98	56.3	961.0	13.02	-39.9	0	0.4	50.6	59.3	0	258	0	0	146	71.2	56.7	0.0
2018 06/15 18:15	48.4	71.0	266.2	15.4	29.98	56.7	957.0	13.01	-39.9	0	0.3	50.6	58.3	0	258	0	0	146	71.2	56.7	0.0
2018 06/15 18:30	48.3	70.6	276.9	12.4	29.98	56.9	853.0	13.01	-40.1	0	0.6	48.8	58.8	0	258	0	0	146	71.2	56.6	0.0
2018 06/15 18:45	47.1	71.7	286.6	12.6	29.99	57.4	856.0	12.99	-40.0	0	0.8	47.9	57.8	0	258	0	0	146	70.8	56.5	0.0
2018 06/15 19:00	46.5	74.0	286.3	15.8	29.99	57.6	961.0	12.99	-40.1	0	0.5	47.0	57.4	0	258	0	0	146	70.1	56.2	0.0
2018 06/15 19:15	45.6	76.7	279.8	11.5	30.00	58.0	932.0	13.00	-40.0	0	0.3	46.1	56.6	0	258	0	0	146	69.2	56.0	0.0
2018 06/15 19:30	45.3	77.8	293.0	12.1	30.00	58.2	961.0	13.01	-40.0	0	0.4	46.1	53.2	0	258	0	0	146	68.4	55.8	0.0
2018 06/15 19:45	44.0	81.3	303.6	12.1	30.00	58.5	959.0	12.99	-40.0	0	0.0	45.2	51.4	0	258	0	0	146	67.6	55.6	0.0
2018 06/15 20:00	43.3	84.1	277.9	13.4	30.00	58.8	954.0	13.00	-40.1	0	0.4	43.4	50.4	0	258	0	0	146	67.0	55.2	0.0
2018 06/15 20:15	42.0	87.1	284.2	11.2	30.00	59.0	946.0	13.01	-40.2	0	0.6	41.6	49.4	0	258	0	0	146	66.3	55.0	0.0
2018 06/15 20:30	41.2	89.7	296.7	12.5	30.01	59.2	915.0	12.99	-39.9	0	0.6	41.6	48.4	0	258	0	0	146	65.8	54.8	0.0
2018 06/15 20:45	40.4	92.5	340.5	12.9	30.01	59.5	771.0	13.02	-40.0	0	0.4	40.7	47.6	0	258	0	0	146	65.0	54.5	0.0
2018 06/15 21:00	39.3	95.1	308.1	12.8	30.02	59.7	314.1	13.01	-40.1	0	0.5	38.9	47.4	0	258	0	0	146	64.2	54.2	0.0
2018 06/15 21:15	38.6	96.9	298.4	10.4	30.01	59.9	25.8	13.03	-40.1	0	0.6	38.9	46.3	0	258	0	0	146	63.5	53.9	0.0
2018 06/15 21:30	38.5	97.7	263.2	9.5	30.02	59.9	2.7	12.99	-40.1	0	0.6	38.9	46.2	0	258	0	0	146	62.8	53.7	0.0
2018 06/15 21:45	38.5	98.7	279.6	9.1	30.02	60.0	0.0	12.99	-40.0	0	0.5	38.9	46.1	0	258	0	0	146	62.1	53.4	0.0
2018 06/15 22:00	38.4	99.3	287.7	10.4	30.03	60.1	-0.3	12.99	-39.9	0	0.4	38.9	46.3	0	258	0	0	146	61.5	53.2	0.0
2018 06/15 22:15	38.1	99.8	188.5	9.5	30.03	60.1	-0.3	12.99	-40.0	0	0.6	38.9	46.1	0	258	0	0	146	61.2	53.0	0.0
2018 06/15 22:30	38.1	99.9	275.5	9.2	30.03	60.1	0.0	13.00	-40.0	0	0.4	38.9	46.1	0	258	0	0	146	60.7	52.9	0.0
2018 06/15 22:45	38.1	100.1	283.3	12.2	30.03	60.0	-0.3	13.02	-40.1	0	0.5	38.9	45.6	0	258	0	0	146	60.2	52.7	0.0
2018 06/15 23:00	38.0	100.1	278.1	14.1	30.02	59.9	0.0	13.02	-40.0	0	0.6	38.0	45.3	0	258	0	0	146	59.7	52.4	0.0
2018 06/15 23:15	37.8	100.2	294.4	11.5	30.02	59.9	0.0	13.00	-40.0	0	0.6	38.0	45.4	0	258	0	0	146	59.2	52.2	0.0
2018 06/15 23:30	37.5	100.3	307.3	11.5	30.02	59.7	0.0	12.99	-39.8	0	0.6	38.0	45.2	0	258	0	0	146	59.0	52.1	0.0
2018 06/15 23:45	37.7	100.3	279.7	10.2	30.01	59.6	0.0	13.02	-40.0	0	0.4	38.0	44.8	0	258	0	0	146	58.5	52.0	0.0
2018 06/16 00:00	37.3	100.3	293.6	8.7	30.01	59.5	0.0	13.01	-40.2	0	0.6	37.1	44.5	0	258	0	0	146	58.0	51.7	0.0
2018 06/16 00:15	37.1	100.2	280.5	8.5	30.01	59.3	0.0	13.01	-40.0	0	0.6	36.2	44.1	0	258	0	0	146	57.6	51.5	0.0
2018 06/16 00:30	36.8	100.3	269.7	9.9	30.00	59.2	0.0	13.00	-39.9	0	0.5	36.2	43.8	0	258	0	0	146	57.3	51.4	0.0
2018 06/16 00:45	36.7	100.4	276.0	12.2	29.99	59.1	0.0	12.99	-40.0	0	0.5	36.2	43.5	0	258	0	0	146	56.8	51.2	0.0
2018 06/16 01:00	36.7	100.4	278.2	12.0	29.99	58.9	0.0	12.99	-40.2	0	0.5	36.2	43.5	0	258	0	0	146	56.4	51.0	0.0
2018 06/16 01:15	37.2	96.6	282.0	12.0	29.98	58.6	-0.3	13.01	-40.1	0	0.5	36.2	43.2	0	258	0	0	146	55.8	50.9	0.0
2018 06/16 01:30	37.2	94.6	284.3	17.5	29.97	58.4	0.0	12.99	-40.1	0	0.6	35.3	43.2	0	258	0	0	146	55.5	50.6	0.0
2018 06/16 01:45	36.3	96.7	308.0	5.3	29.97	58.2	0.0	12.99	-39.9	0	0.5	35.3	43.0	0	258	0	0	146	55.1	50.4	0.0
2018 06/16 02:00	36.6	97.6	305.7	8.5	29.97	58.1	0.0	13.01	-39.9	0	0.4	34.4	42.1	0	258	0	0	146	54.7	50.2	0.0
2018 06/16 02:15	36.3	97.7	298.9	8.3	29.96	57.9	0.0	13.01	-40.0	0	0.6	35.3	41.5	0	258	0	0	146	54.3	50.0	0.0
2018 06/16 02:30	36.2	98.5	292.5	3.9	29.96	57.7	0.0	13.02	-40.0	0	0.6	35.3	42.7	0	258	0	0	146	54.0	49.8	0.0
2018 06/16 02:45	36.5	99.5	260.0	6.4	29.95	57.5	0.0	13.01	-39.9	0	0.6	36.2	43.1	0	258	0	0	146	53.7	49.6	0.0
2018 06/16 03:00	36.7	99.6	268.5	11.9	29.95	57.1	0.0	12.99	-40.0	0	0.5	36.2	42.6	0	258	0	0	146	53.3	49.5	0.0
2018 06/16 03:15	36.6	99.5	248.0	7.1	29.95	56.9	-0.3	13.00	-39.9	0	0.4	37.1	43.4	0	258	0	0	146	53.1	49.4	0.0
2018 06/16 03:30	36.6	99.8	275.2	9.5	29.94	56.7	0.0	12.99	-40.0	0	0.4	37.1	43.3	0	258	0	0	146	52.9	49.3	0.0
2018 06/16 03:45	36.7	100.1	286.2	9.4	29.94	56.5	-0.3	13.01	-40.1	0	0.4	37.1	43.5	0	258	0	0	146	52.7	49.2	0.0
2018 06/16 04:00	36.6	100.1	256.9	8.7	29.94	56.3	0.0	13.03	-40.0	0	0.5	37.1	43.5	0	258	0	0	146	52.5	49.2	0.0
2018 06/16 04:15	36.7	100.4	298.9	7.2	29.93	56.1	-0.3	12.99	-39.9	0	0.4	37.1	43.9	0	258	0	0	146	52.3	49.0	0.0
2018 06/16 04:30	36.6	100.3	281.3	5.6	29.93	55.9	0.0	13.01	-39.9	0	0.7	36.2	43.4	0	258	0	0	146	52.2	48.9	0.0
2018 06/16 04:45	36.7	100.4	278.4	7.9	29.92	55.6	2.7	13.00	-39.9	0	0.6	36.2	43.2	0	258	0	0	146	52.0	48.8	0.0
2018 06/16 05:00	36.7	100.4	298.7	7.7	29.92	55.2	20.4	13.02	-40.1	0	0.5	36.2	43.1	0	258	0	0	146	51.7	48.8	0.0
2018 06/16 05:15	36.6	100.3	277.6	8.3	29.92	55.0	87.5	12.99	-40.0	0	0.6	36.2	42.9	0	258	0	0	146	51.5	48.6	0.0
2018 06/16 05:30	36.8	100.4	259.3	5.4	29.92	54.8	280.9	13.00	-39.9	0	0.6	36.2	43.2	0	258	0	0	146	51.4	48.6	0.0
2018 06/16 05:45	37.0	100.4	292.7	6.5	29.91	54.6	570.7	13.00	-40.1	0	0.7	36.2	43.1	0	258	0	0	146	51.3	48.5	0.0
2018 06/16 06:00	37.1	100.3	293.6	6.4	29.91	54.4	717.0	12.99	-40.0	0	0.4	38.0	43.4	0	258	0	0	146	51.1	48.4	0.0
2018 06/16 06:15	36.7	100.4	298.1	10.5	29.91	54.1	756.0	12.99	-39.8	0	0.2	38.9	43.8	0	258	0	0	146	50.9	48.3	0.0
2018 06/16 06:30	37.0	100.5	309.3	9.5	29.91	53.9	788.0	12.99	-39.9	0	0.1	39.8	43.8	0	258	0	0	146	50.7	48.2	0.0
2018 06/16 06:45	37.0	100.4	329.5	11.2	29.90	53.7	805.0	13.01	-39.8	0	-0.3	41.6	44.0	0	258	0	0	146	50.5	48.0	0.0
2018 06/16 07:00	37.1	100.4	320.8	8.8	29.90	53.5	820.0	12.99	-40.1	0	-0.3	41.6	44.3	0	258	0	0	146	50.5	48.0	0.0
2018 06/16 07:15	37.6	100.5	312.0	5.8	29.90	53.3	795.0	12.99	-40.1	0	-0.2	41.6	44.7	0	258	0	0	146	50.5	47.9	0.0
2018 06/16 07:30	37.4	100.4	314.4	7.4	29.90	53.2	824.0	13.01	-39.9	0	0.1	42.5	45.2	0	258	0	0	146	50.7	47.9	0.0
2018 06/16 07:45	37.8	100.5	341.2	8.3	29.90	53.1	827.0	13.00	-40.0	0	0.0	41.6	45.9	0	258	0	0	146	51.0	47.9	0.0
2018 06/16 08:00	37.4	100.4	305.1	6.4	29.90	52.9	798.0	12.99	-39.9	0	-0.4	45.2	46.3	0	258	0	0	146	51.2	47.9	0.0
2018 06/16 08:15	38.3	100.5	336.1	2.5	29.90	52.9	617.1	12.98	-39.9	0	0.3	41.6	46.2	0	258	0	0	146	51.1	47.9	0.0
2018 06/16 08:30	37.7	100.4	338.0	5.1	29.91	52.7	617.1	12.98	-40.0	0	0.2	40.7	45.8	0	258	0	0	146	51.2	48.0	0.0
2018 06/16 08:45	38.5	100.5	36.8	5.2	29.91	52.6	813.0	13.02	-39.9	0	0.3	41.6	46.7	0	258	0	0	146	51.3	48.0	0.0
2018 06/16 09:00	39.4	97.2	63.7	6.4	29.91	52.6	820.0	13.01	-39.8	0	0.4	42.5	48.0	0	258	0	0	146	51.7	48.2	0.0
2018 06/16 09:15	41.1	83.5	68.2	9.7	29.91	52.4	837.0	13.01	-39.9	0	0.2	44.3	49.5	0	258	0	0	146	52.3	48.4	0.0
2018 06/16 09:30	41.5	82.6	66.2	8.3	29.91	52.4	827.0	13.00	-40.0	0	0.2	44.3	49.4	0	258	0	0	146	52.8	48.7	0.0
2018 06/16 09:45	41.5	81.8	53.6	13.4	29.91	52.4	840.0	12.99	-40.0	0	0.8	44.3	49.6	0	258	0	0	146	53.4	48.9	0.0
2018 06/16 10:00	41.3	79.2	69.2	9.5	29.91	52.3	841.0	12.98	-40.0	0	0.0	45.2	50.1	0	258	0	0	146	53.9	49.2	0.0
2018 06/16 10:15	42.0	79.1	63.7	11.1	29.92	52.2	844.0	12.98	-39.8	0	0.3	44.3	49.8	0	258	0	0	146	54.2	49.4	0.0
2018 06/16 10:30	41.2	79.9	58.3	15.5	29.92	52.2	856.0	12.98	-40.1	0	0.7	46.1	50.7	0	258	0	0	146	54.5	49.6	0.0
2018 06/16 10:45	42.8	78.7	86.2	18.0	29.93	52.2	833.0	13.02	-40.1	0	0.6	45.2	51.2	0	258	0	0	146	55.1	50.0	0.0
2018 06/16 11:00	43.0	79.8	65.6	10.6	29.93	52.2	858.0	12.99	-40.0	0	0.2	46.1	51.2	0	258	0	0	146	55.7	50.4	0.0
2018 06/16 11:15	43.8	81.9	99.3	15.4	29.93	52.2	851.0	12.99	-39.9	0	0.6	47.9	52.6	0	258	0	0	146	56.2	50.7	0.0
2018 06/16 11:30	42.1	82.6	65.7	19.3	29.94	52.2	855.0	13.01	-39.9	0	0.4	46.1	51.6	0	258	0	0	146	56.5	51.1	0.0
2018 06/16 11:45	43.3	81.7	48.3	14.7	29.94	52.2	851.0	13.01	-40.1	0	0.4	47.0	52.1	0	258	0	0	146	57.0	51.4	0.0
2018 06/16 12:00	43.3	81.5	102.2	17.9	29.94	52.2	847.0	12.98	-40.1	0	0.5	49.7	53.9	0	258	0	0	146	57.4	51.6	0.0
2018 06/16 12:15	45.3	80.9	64.0	15.7	29.94	52.3	863.0	13.01	-39.9	0	0.6	47.9	54.9	0	258	0	0	146	58.5	52.3	0.0
2018 06/16 12:30	46.0	74.8	64.0	17.4	29.94	52.4	842.0	13.00	-40.0	0	0.4	48.8	55.5	0	258	0	0	146	59.4	52.9	0.0
2018 06/16 12:45	45.6	77.2	35.2	19.6	29.95	52.4	885.0	13.00	-40.0	0	0.9	50.6	56.1	0	258	0	0	146	60.9	54.0	0.0
2018 06/16 13:00	47.3	74.0	19.8	18.6	29.95	52.4	884.0	13.00	-40.1	0	-0.0	50.6	56.2	0	258	0	0	146	62.0	54.8	0.0
2018 06/16 13:15	47.3	68.5	64.4	19.1	29.95	52.6	878.0	13.00	-40.2	0	0.5	52.4	59.4	0	258	0	0	146	62.8	55.4	0.0
2018 06/16 13:30	48.7	64.1	80.2	22.2	29.95	52.6	881.0	13.00	-40.2	0	0.8	51.5	59.2	0	258	0	0	146	63.5	55.7	0.0
2018 06/16 13:45	50.0	65.2	62.2	14.2	29.95	52.6	887.0	12.99	-40.1	0	1.3	53.3	59.1	0	258	0	0	146	64.4	56.2	0.0
2018 06/16 14:00	49.4	65.1	50.2	14.5	29.95	52.9	853.0	12.99	-39.9	0	0.4	50.6	57.8	0	258	0	0	146	65.0	56.5	0.0
2018 06/16 14:15	50.4	63.2	84.4	13.3	29.95	52.9	861.0	13.02	-40.0	0	0.9	52.4	58.8	0	258	0	0	146	65.1	56.5	0.0
2018 06/16 14:30	51.0	62.4	45.2	17.1	29.95	53.1	883.0	12.99	-40.1	0	0.4	56.0	59.7	0	258	0	0	146	65.4	56.6	0.0
2018 06/16 14:45	50.8	62.5	66.4	16.2	29.95	53.1	877.0	12.99	-40.0	0	0.6	53.3	60.2	0	258	0	0	146	65.7	56.7	0.0
2018 06/16 15:00	50.5	62.6	31.6	11.5	29.95	53.3	874.0	13.01	-39.8	0	1.2	55.1	61.9	0	258	0	0	146	66.3	56.6	0.0
2018 06/16 15:15	50.1	61.8	41.3	18.5	29.96	53.3	831.0	13.01	-40.2	0	0.1	52.4	59.4	0	258	0	0	146	66.4	56.6	0.0
2018 06/16 15:30	50.4	54.5	27.8	14.9	29.96	53.5	874.0	13.01	-40.1	0	0.1	53.3	58.6	0	258	0	0	146	66.3	56.5	0.0
2018 06/16 15:45	50.1	59.2	39.1	13.7	29.96	53.7	828.0	13.01	-40.0	0	0.2	52.4	58.6	0	258	0	0	146	66.1	56.2	0.0
2018 06/16 16:00	50.0	64.3	8.1	10.6	29.96	53.9	843.0	13.02	-40.0	0	0.4	51.5	58.2	0	258	0	0	146	65.9	56.2	0.0
2018 06/16 16:15	49.3	74.4	299.2	12.1	29.97	53.9	833.0	13.01	-40.1	0	0.6	49.7	57.4	0	258	0	0	146	65.6	56.1	0.0
2018 06/16 16:30	46.4	78.6	355.2	22.0	29.97	54.1	790.0	13.00	-40.1	0	0.4	47.9	53.8	0	258	0	0	146	65.4	55.9	0.0
2018 06/16 16:45	48.1	74.3	23.1	12.9	29.97	54.4	887.0	12.99	-40.0	0	0.7	50.6	57.8	0	258	0	0	146	65.0	55.8	0.0
2018 06/16 17:00	50.4	63.1	355.9	17.2	29.97	54.6	862.0	13.01	-40.0	0	0.2	52.4	58.4	0	258	0	0	146	65.4	55.9	0.0
2018 06/16 17:15	46.8	75.3	21.7	23.3	29.98	54.8	850.0	12.99	-39.9	0	0.9	47.9	53.8	0	259	0	0	146	65.0	55.9	0.0
2018 06/16 17:30	46.1	83.9	35.1	14.4	30.00	55.0	725.0	12.99	-40.1	0	0.8	46.1	53.3	0	259	0	0	146	64.6	55.8	0.0
2018 06/16 17:45	43.8	90.0	2.4	19.1	30.00	55.0	385.8	12.99	-39.8	0	1.0	42.5	48.9	0	270	0	0	146	63.8	55.7	0.0
2018 06/16 18:00	42.2	92.8	334.1	13.1	30.00	55.2	399.3	13.00	-40.0	0	0.9	41.6	47.4	0	276	0	0	146	63.3	55.4	0.0
2018 06/16 18:15	43.4	83.5	332.6	18.6	29.98	55.4	504.5	13.01	-39.9	0	0.7	41.6	46.9	0	276	0	0	146	63.0	55.0	0.0
2018 06/16 18:30	41.3	97.4	345.1	20.8	30.00	55.6	297.5	13.01	-39.9	0	0.8	39.8	45.8	0	286	0	0	146	62.5	54.9	0.0
2018 06/16 18:45	42.4	94.5	3.3	22.7	29.99	55.6	648.7	13.00	-40.1	0	1.1	40.7	46.5	0	287	0	0	146	61.9	54.6	0.0
2018 06/16 19:00	43.3	87.9	12.4	14.5	30.00	55.6	797.0	13.01	-40.1	0	1.4	40.7	47.8	0	287	0	0	146	61.5	54.2	0.0
2018 06/16 19:15	43.5	87.1	43.2	4.7	30.01	55.6	765.0	13.03	-40.0	0	0.9	42.5	48.1	0	287	0	0	146	61.1	54.1	0.0
2018 06/16 19:30	43.8	84.2	64.5	10.5	30.01	55.8	824.0	13.01	-39.9	0	0.9	42.5	48.9	0	287	0	0	146	60.9	54.0	0.0
2018 06/16 19:45	43.8	87.6	68.1	9.2	30.01	55.8	958.0	12.99	-40.0	0	0.9	42.5	48.4	0	287	0	0	146	60.6	53.9	0.0
2018 06/16 20:00	43.8	84.2	63.9	13.9	30.00	55.9	935.0	12.99	-39.9	0	1.0	40.7	47.7	0	287	0	0	146	60.4	53.7	0.0
2018 06/16 20:15	43.8	84.3	68.9	15.7	30.00	55.9	888.0	13.00	-40.1	0	1.1	39.8	46.9	0	287	0	0	146	60.2	53.5	0.0
2018 06/16 20:30	42.7	90.7	78.1	14.1	30.00	55.9	931.0	13.01	-39.9	0	0.7	40.7	46.7	0	287	0	0	146	60.0	53.3	0.0
2018 06/16 20:45	42.4	91.1	68.7	20.1	30.01	55.9	883.0	13.00	-39.9	0	0.9	39.8	46.1	0	287	0	0	146	59.5	53.1	0.0
2018 06/16 21:00	42.0	89.7	56.8	20.9	30.01	55.9	477.0	13.00	-40.0	0	1.1	38.9	45.9	0	287	0	0	146	59.0	52.9	0.0
2018 06/16 21:15	42.0	89.2	74.6	22.1	30.01	55.9	183.5	12.99	-39.9	0	0.9	38.9	45.6	0	287	0	0	146	58.6	52.7	0.0
2018 06/16 21:30	41.3	91.9	88.0	14.1	30.01	55.9	37.7	12.99	-40.0	0	0.7	38.9	45.3	0	287	0	0	146	58.4	52.4	0.0
2018 06/16 21:45	40.7	94.2	54.8	17.9	30.01	55.9	4.8	12.99	-40.0	0	0.9	38.9	45.1	0	287	0	0	146	57.8	52.2	0.0
2018 06/16 22:00	41.0	95.7	86.2	18.7	30.00	55.9	0.3	13.01	-40.0	0	1.1	39.8	45.4	0	287	0	0	146	57.3	51.9	0.0
2018 06/16 22:15	41.7	95.7	59.1	23.3	30.01	55.6	0.0	12.99	-39.9	0	0.9	39.8	45.7	0	287	0	0	146	57.3	51.7	0.0
2018 06/16 22:30	42.1	96.1	64.6	26.9	30.01	55.6	0.0	13.01	-40.2	0	1.1	39.8	46.0	0	287	0	0	146	57.0	51.5	0.0
2018 06/16 22:45	42.2	96.3	30.4	25.2	30.00	55.4	0.0	12.99	-40.0	0	1.0	40.7	46.2	0	287	0	0	146	56.7	51.4	0.0
2018 06/16 23:00	42.4	95.7	67.8	27.9	30.01	55.4	0.0	12.99	-39.9	0	0.8	40.7	46.7	0	287	0	0	146	56.4	51.4	0.0
2018 06/16 23:15	42.3	96.8	62.2	21.6	30.01	55.2	0.0	12.98	-40.0	0	0.7	41.6	46.8	0	287	0	0	146	56.1	51.2	0.0
2018 06/16 23:30	42.3	97.0	54.1	26.4	30.00	55.0	0.0	12.98	-39.9	0	0.8	41.6	46.8	0	287	0	0	146	55.9	51.2	0.0
2018 06/16 23:45	42.3	97.4	44.6	26.6	30.00	54.8	0.0	12.99	-40.0	0	0.7	41.6	47.0	0	287	0	0	146	55.8	51.1	0.0
2018 06/17 00:00	42.1	98.7	37.0	20.1	30.00	54.8	0.0	13.01	-40.0	0	0.7	41.6	47.1	0	287	0	0	146	55.6	51.0	0.0
2018 06/17 00:15	42.2	99.1	66.2	18.7	30.00	54.6	0.0	13.00	-40.0	0	1.0	41.6	47.0	0	287	0	0	146	55.4	51.0	0.0
2018 06/17 00:30	42.2	98.9	34.7	23.4	29.99	54.4	0.0	12.99	-40.0	0	0.7	41.6	47.1	0	287	0	0	146	55.2	50.9	0.0
2018 06/17 00:45	42.1	98.8	50.4	18.9	29.99	54.4	0.0	13.01	-40.0	0	0.9	41.6	46.8	0	287	0	0	146	55.0	50.9	0.0
2018 06/17 01:00	41.8	98.4	16.4	19.3	29.99	54.1	0.0	12.99	-39.9	0	0.6	41.6	46.7	0	287	0	0	146	54.9	50.7	0.0
2018 06/17 01:15	42.4	95.5	39.9	23.3	29.98	54.0	0.0	13.00	-39.8	0	0.7	42.5	47.1	0	287	0	0	146	54.6	50.6	0.0
2018 06/17 01:30	42.3	95.7	92.7	21.4	29.97	53.9	-0.3	12.99	-40.1	0	0.4	42.5	47.6	0	287	0	0	146	54.5	50.5	0.0
2018 06/17 01:45	42.7	94.6	51.0	22.2	29.98	53.7	-0.3	13.00	-40.1	0	0.6	42.5	48.1	0	287	0	0	146	54.3	50.5	0.0
2018 06/17 02:00	43.0	93.3	25.0	19.5	29.99	53.7	0.0	13.00	-40.0	0	0.4	43.4	48.3	0	287	0	0	146	54.1	50.4	0.0
2018 06/17 02:15	42.9	92.7	35.8	22.5	29.98	53.5	0.0	12.99	-40.0	0	0.5	42.5	48.3	0	287	0	0	146	54.0	50.4	0.0
2018 06/17 02:30	42.8	93.2	20.3	29.8	29.96	53.4	0.0	13.01	-39.9	0	0.6	43.4	48.0	0	287	0	0	146	54.0	50.3	0.0
2018 06/17 02:45	42.6	95.1	28.0	24.1	29.96	53.3	0.0	13.00	-40.0	0	0.5	43.4	48.1	0	287	0	0	146	53.9	50.3	0.0
2018 06/17 03:00	42.4	96.8	71.8	24.5	29.96	53.1	0.0	13.01	-39.9	0	0.8	42.5	48.0	0	287	0	0	146	53.7	50.2	0.0
2018 06/17 03:15	42.6	97.6	26.2	24.4	29.97	53.1	-0.3	12.98	-40.1	0	0.7	42.5	48.1	0	287	0	0	146	53.5	50.2	0.0
2018 06/17 03:30	42.4	98.3	41.8	25.1	29.97	52.9	-0.3	13.00	-40.1	0	0.6	42.5	48.1	0	287	0	0	146	53.5	50.2	0.0
2018 06/17 03:45	42.3	99.1	43.7	25.5	29.96	52.9	0.0	12.98	-39.9	0	0.6	42.5	48.0	0	287	0	0	146	53.5	50.1	0.0
2018 06/17 04:00	42.2	98.8	52.5	20.1	29.97	52.6	-0.3	13.00	-39.9	0	0.6	42.5	48.0	0	287	0	0	146	53.4	50.1	0.0
2018 06/17 04:15	42.0	99.9	51.1	24.9	29.97	52.6	0.0	13.00	-39.9	0	0.9	41.6	47.7	0	287	0	0	146	53.3	50.1	0.0
2018 06/17 04:30	42.0	100.2	49.8	23.1	29.96	52.4	-0.3	13.00	-40.0	0	0.6	41.6	47.6	0	287	0	0	146	53.3	50.1	0.0
2018 06/17 04:45	42.0	100.2	41.4	18.4	29.97	52.3	0.3	13.00	-40.1	0	0.7	41.6	47.8	0	287	0	0	146	53.2	50.0	0.0
2018 06/17 05:00	42.1	100.6	83.8	18.8	29.97	52.2	5.8	12.98	-40.1	0	0.7	41.6	47.7	0	287	0	0	146	53.1	50.0	0.0
2018 06/17 05:15	42.1	100.4	48.6	19.1	29.97	52.1	109.6	13.00	-39.9	0	0.6	41.6	47.5	0	287	0	0	146	53.1	50.0	0.0
2018 06/17 05:30	42.1	100.6	59.8	18.1	29.96	52.0	238.8	12.98	-40.1	0	0.5	41.6	47.1	0	287	0	0	146	53.0	50.0	0.0
2018 06/17 05:45	42.0	100.5	58.5	20.9	29.96	51.8	386.4	12.98	-40.0	0	0.7	40.7	47.0	0	287	0	0	146	53.1	49.8	0.0
2018 06/17 06:00	42.0	100.4	39.1	11.2	29.96	51.8	598.8	12.98	-40.0	0	0.6	41.6	47.2	0	287	0	0	146	52.9	49.8	0.0
2018 06/17 06:15	42.3	100.5	35.0	14.0	29.96	51.6	717.0	12.98	-39.9	0	0.4	43.4	47.5	0	287	0	0	146	52.8	49.8	0.0
2018 06/17 06:30	42.4	100.5	51.6	14.2	29.96	51.6	765.0	13.00	-39.9	0	-0.2	46.1	47.7	0	287	0	0	146	52.7	49.8	0.0
2018 06/17 06:45	42.6	100.6	47.5	11.1	29.97	51.4	722.0	13.02	-39.9	0	0.5	43.4	48.3	0	287	0	0	146	52.7	49.7	0.0
2018 06/17 07:00	42.3	100.5	87.8	12.0	29.97	51.4	742.0	13.01	-40.0	0	0.4	43.4	48.6	0	287	0	0	146	52.9	49.7	0.0
2018 06/17 07:15	42.6	100.7	55.5	13.9	29.97	51.3	744.0	12.99	-40.1	0	0.7	43.4	49.0	0	287	0	0	146	53.0	49.8	0.0
2018 06/17 07:30	42.7	100.8	67.0	17.9	29.97	51.2	733.0	13.01	-40.1	0	0.4	44.3	49.6	0	287	0	0	146	53.1	49.8	0.0
2018 06/17 07:45	43.2	100.7	30.8	16.5	29.98	51.1	760.0	12.99	-39.9	0	0.4	45.2	50.3	0	287	0	0	146	53.8	49.8	0.0
2018 06/17 08:00	43.2	99.9	37.0	16.9	29.98	51.1	775.0	13.01	-40.0	0	0.4	46.1	50.4	0	287	0	0	146	54.0	50.1	0.0
2018 06/17 08:15	44.1	99.3	12.5	9.3	29.98	51.0	807.0	13.01	-39.8	0	0.2	47.9	51.6	0	287	0	0	146	54.5	50.3	0.0
2018 06/17 08:30	45.0	96.4	29.6	18.0	29.98	50.9	818.0	13.00	-40.0	0	-0.0	48.8	52.5	0	287	0	0	146	54.8	50.5	0.0
2018 06/17 08:45	45.4	94.3	40.5	15.4	29.98	50.9	803.0	12.99	-40.0	0	0.2	48.8	53.0	0	287	0	0	146	55.4	50.9	0.0
2018 06/17 09:00	47.7	91.3	31.8	15.8	29.98	50.9	851.0	12.99	-40.0	0	-0.1	50.6	53.8	0	287	0	0	146	56.1	51.3	0.0
2018 06/17 09:15	47.5	90.2	11.9	14.1	29.99	50.9	816.0	13.00	-39.9	0	-0.4	49.7	54.9	0	287	0	0	146	56.7	51.6	0.0
2018 06/17 09:30	47.5	84.9	86.5	18.4	29.99	50.9	838.0	12.98	-40.1	0	0.4	49.7	54.3	0	287	0	0	146	57.0	51.9	0.0
2018 06/17 09:45	47.9	81.1	39.8	16.1	29.99	50.9	830.0	13.00	-40.0	0	0.2	50.6	55.2	0	287	0	0	146	57.7	52.4	0.0
2018 06/17 10:00	46.8	80.7	23.9	20.2	29.99	51.0	834.0	13.00	-40.0	0	0.3	48.8	54.3	0	287	0	0	146	58.2	52.7	0.0
2018 06/17 10:15	47.8	76.6	28.5	21.6	30.00	51.1	830.0	12.97	-40.2	0	0.4	49.7	54.8	0	287	0	0	146	58.5	52.9	0.0
2018 06/17 10:30	48.4	74.8	13.5	26.2	30.00	51.1	855.0	13.00	-40.1	0	0.2	50.6	55.0	0	287	0	0	146	58.8	53.0	0.0
2018 06/17 10:45	48.8	77.8	63.9	13.7	30.01	51.3	858.0	12.98	-40.0	0	0.4	51.5	56.1	0	287	0	0	146	59.4	53.4	0.0
2018 06/17 11:00	49.3	74.0	28.5	14.9	30.01	51.4	857.0	12.98	-40.0	0	0.7	51.5	56.4	0	287	0	0	146	60.0	54.0	0.0
2018 06/17 11:15	49.0	74.6	20.9	12.9	30.01	51.5	841.0	13.02	-39.9	0	0.1	51.5	56.8	0	287	0	0	146	60.9	54.5	0.0
2018 06/17 11:30	49.0	72.7	16.9	19.2	30.01	51.6	838.0	13.00	-40.1	0	0.3	50.6	56.5	0	287	0	0	146	61.4	54.8	0.0
2018 06/17 11:45	49.9	75.0	3.3	12.2	30.02	51.8	848.0	12.99	-39.9	0	0.2	51.5	56.9	0	287	0	0	146	62.1	55.2	0.0
2018 06/17 12:00	49.5	74.2	45.3	17.3	30.02	51.8	847.0	13.02	-40.1	0	0.1	51.5	56.7	0	287	0	0	146	62.7	55.5	0.0
2018 06/17 12:15	50.4	67.5	56.0	16.9	30.02	52.0	852.0	13.00	-40.2	0	-0.1	52.4	57.8	0	287	0	0	146	63.3	55.7	0.0
2018 06/17 12:30	51.1	68.6	24.3	19.4	30.02	52.1	841.0	13.01	-40.1	0	0.3	53.3	58.4	0	287	0	0	146	63.7	56.0	0.0
2018 06/17 12:45	50.9	69.2	51.2	19.8	30.03	52.2	849.0	12.99	-40.1	0	0.1	53.3	58.0	0	287	0	0	146	64.0	56.2	0.0
2018 06/17 13:00	53.2	70.4	53.4	7.7	30.02	52.4	818.0	13.02	-40.1	0	0.4	55.1	60.4	0	287	0	0	146	64.6	56.6	0.0
2018 06/17 13:15	52.3	67.5	34.4	12.6	30.02	52.4	809.0	12.98	-40.0	0	0.0	54.2	58.9	0	287	0	0	146	64.9	56.9	0.0
2018 06/17 13:30	52.5	67.1	43.5	13.1	30.03	52.6	833.0	12.98	-40.1	0	0.2	55.1	60.9	0	287	0	0	146	65.3	57.0	0.0
2018 06/17 13:45	51.7	63.4	49.7	18.1	30.03	52.9	883.0	12.98	-39.9	0	0.2	55.1	60.4	0	287	0	0	146	65.7	57.3	0.0
2018 06/17 14:00	53.2	61.6	67.7	19.4	30.02	52.9	851.0	13.00	-40.0	0	0.7	56.0	62.8	0	287	0	0	146	66.3	57.6	0.0
2018 06/17 14:15	53.6	61.5	57.0	15.2	30.03	53.1	856.0	13.00	-40.1	0	-0.1	56.0	61.3	0	287	0	0	146	66.9	57.9	0.0
2018 06/17 14:30	53.1	62.3	50.9	14.9	30.03	53.3	805.0	13.01	-39.8	0	0.2	54.2	60.5	0	287	0	0	146	66.9	58.0	0.0
2018 06/17 14:45	55.0	57.3	54.7	15.5	30.03	53.5	862.0	13.01	-40.0	0	0.4	56.9	62.7	0	287	0	0	146	67.3	58.2	0.0
2018 06/17 15:00	54.4	56.1	18.2	26.9	30.02	53.5	847.0	13.01	-39.9	0	0.7	58.7	63.4	0	287	0	0	146	67.7	58.2	0.0
2018 06/17 15:15	54.8	56.2	29.9	20.7	30.03	53.7	851.0	13.00	-39.8	0	0.4	56.0	62.0	0	287	0	0	146	68.3	58.3	0.0
2018 06/17 15:30	55.3	54.8	60.5	13.5	30.04	53.9	864.0	13.00	-39.9	0	0.9	57.8	63.2	0	287	0	0	146	68.3	58.4	0.0
2018 06/17 15:45	55.6	51.5	24.3	20.6	30.03	54.1	872.0	13.00	-40.0	0	0.5	57.8	65.7	0	287	0	0	146	68.7	58.3	0.0
2018 06/17 16:00	56.1	47.3	14.3	26.2	30.03	54.3	872.0	12.99	-40.2	0	0.3	59.6	64.5	0	287	0	0	146	69.2	58.4	0.0
2018 06/17 16:15	56.2	51.4	37.4	17.8	30.04	54.4	858.0	13.01	-40.0	0	0.7	59.6	66.5	0	287	0	0	146	70.0	58.6	0.0
2018 06/17 16:30	57.2	44.8	14.7	32.5	30.03	54.6	862.0	13.01	-39.9	0	0.4	58.7	66.3	0	287	0	0	146	70.4	58.7	0.0
2018 06/17 16:45	56.7	48.6	355.4	12.7	30.03	54.8	862.0	12.99	-40.0	0	0.4	57.8	66.5	0	287	0	0	146	71.2	58.8	0.0
2018 06/17 17:00	56.5	44.7	8.3	32.8	30.03	55.0	875.0	12.97	-39.8	0	0.4	58.7	66.9	0	287	0	0	146	71.8	59.0	0.0
2018 06/17 17:15	57.0	46.6	14.0	29.1	30.04	55.2	873.0	12.99	-39.9	0	0.2	59.6	65.4	0	287	0	0	146	72.6	59.1	0.0
2018 06/17 17:30	57.5	44.8	28.4	20.0	30.04	55.5	899.0	13.00	-39.9	0	0.5	59.6	67.2	0	287	0	0	146	72.7	59.2	0.0
2018 06/17 17:45	55.9	49.1	68.0	20.0	30.05	55.8	759.0	13.01	-40.1	0	0.3	56.9	63.3	0	287	0	0	146	72.5	59.2	0.0
2018 06/17 18:00	54.5	53.6	76.9	18.4	30.05	56.1	846.0	12.99	-39.9	0	0.4	56.0	62.7	0	287	0	0	146	71.8	59.1	0.0
2018 06/17 18:15	55.4	54.4	67.5	11.9	30.06	56.3	875.0	12.99	-40.0	0	0.3	57.8	65.5	0	287	0	0	146	71.4	59.0	0.0
2018 06/17 18:30	55.0	55.2	57.8	16.5	30.07	56.5	831.0	12.99	-39.9	0	0.2	56.9	63.1	0	287	0	0	146	71.1	59.0	0.0
2018 06/17 18:45	54.7	56.1	60.6	13.5	30.07	56.7	702.0	13.01	-40.2	0	0.5	55.1	62.2	0	287	0	0	146	70.6	58.8	0.0
2018 06/17 19:00	54.5	56.0	55.0	10.0	30.08	56.9	572.3	12.99	-40.0	0	0.2	55.1	61.3	0	287	0	0	146	70.1	58.7	0.0
2018 06/17 19:15	51.4	62.3	0.1	24.7	30.08	57.1	408.5	12.98	-40.1	0	0.6	51.5	58.3	0	287	0	0	146	69.4	58.6	0.0
2018 06/17 19:30	50.9	62.1	0.7	19.8	30.08	57.3	512.6	13.01	-39.9	0	0.5	50.6	57.4	0	287	0	0	146	68.7	58.4	0.0
2018 06/17 19:45	53.0	55.0	15.1	25.3	30.08	57.4	654.8	13.01	-40.0	0	0.4	51.5	57.7	0	287	0	0	146	68.0	58.2	0.0
2018 06/17 20:00	53.9	52.4	3.6	21.3	30.09	57.4	714.0	13.00	-40.0	0	0.0	51.5	57.1	0	287	0	0	146	67.3	57.9	0.0
2018 06/17 20:15	52.0	58.9	17.1	22.2	30.09	57.6	716.0	13.01	-40.0	0	0.4	50.6	57.0	0	287	0	0	146	66.6	57.7	0.0
2018 06/17 20:30	51.0	63.0	354.8	17.9	30.10	57.6	906.0	13.01	-39.9	0	0.2	50.6	56.4	0	287	0	0	146	66.3	57.6	0.0
2018 06/17 20:45	50.9	64.3	343.8	18.2	30.10	57.6	533.0	13.02	-40.1	0	0.3	49.7	55.8	0	287	0	0	146	65.8	57.3	0.0
2018 06/17 21:00	50.9	69.1	346.8	19.9	30.11	57.6	281.9	13.01	-39.9	0	0.4	49.7	55.7	0	287	0	0	146	65.3	57.0	0.0
2018 06/17 21:15	51.0	70.2	344.4	19.1	30.11	57.6	38.0	12.99	-40.1	0	0.4	49.7	55.7	0	287	0	0	146	64.8	56.8	0.0
2018 06/17 21:30	50.3	73.2	343.4	16.7	30.12	57.6	10.2	13.01	-39.8	0	0.2	49.7	55.1	0	287	0	0	146	64.5	56.7	0.0
2018 06/17 21:45	51.0	70.6	345.9	18.7	30.12	57.6	2.0	12.99	-40.1	0	0.5	48.8	54.8	0	287	0	0	146	64.0	56.6	0.0
2018 06/17 22:00	51.2	69.8	356.5	16.6	30.13	57.6	0.0	13.01	-39.9	0	0.4	49.7	55.9	0	287	0	0	146	63.6	56.4	0.0
2018 06/17 22:15	51.4	69.7	339.7	18.5	30.13	57.6	0.0	13.01	-40.2	0	0.3	50.6	56.2	0	287	0	0	146	63.2	56.1	0.0
2018 06/17 22:30	51.5	67.9	352.0	17.6	30.13	57.4	0.0	12.99	-40.0	0	0.2	50.6	56.5	0	287	0	0	146	63.0	56.1	0.0
2018 06/17 22:45	51.4	66.8	349.8	17.6	30.13	57.4	0.0	12.99	-40.0	0	0.4	49.7	56.4	0	287	0	0	146	62.7	56.0	0.0
2018 06/17 23:00	51.4	66.6	353.2	16.5	30.13	57.4	0.0	12.99	-40.0	0	0.4	50.6	56.1	0	287	0	0	146	62.3	55.9	0.0
2018 06/17 23:15	51.5	64.7	28.2	16.4	30.13	57.2	0.0	13.01	-39.8	0	0.5	50.6	55.5	0	287	0	0	146	62.1	55.8	0.0
2018 06/17 23:30	51.9	64.5	349.9	13.3	30.13	57.1	0.0	12.99	-40.0	0	0.4	49.7	55.3	0	287	0	0	146	61.9	55.7	0.0
2018 06/17 23:45	51.9	62.9	332.6	14.5	30.13	57.1	0.0	13.01	-40.1	0	0.2	50.6	55.1	0	287	0	0	146	61.5	55.6	0.0
2018 06/18 00:00	51.9	62.5	337.6	14.4	30.13	56.9	0.0	12.99	-39.8	0	0.4	50.6	55.7	0	287	0	0	146	61.3	55.5	0.0
2018 06/18 00:15	50.6	68.7	315.9	10.7	30.12	56.9	0.0	13.01	-40.0	0	0.4	48.8	55.0	0	287	0	0	146	61.1	55.4	0.0
2018 06/18 00:30	48.4	79.7	290.6	12.8	30.12	56.9	0.0	13.01	-40.1	0	0.2	47.9	54.0	0	287	0	0	146	60.9	55.2	0.0
2018 06/18 00:45	48.5	78.6	309.9	13.9	30.13	56.7	0.0	13.01	-40.0	0	0.4	47.0	51.4	0	287	0	0	146	60.5	55.2	0.0
2018 06/18 01:00	48.5	77.8	307.2	11.9	30.13	56.7	0.0	13.01	-40.0	0	0.5	47.0	53.3	0	287	0	0	146	60.2	55.0	0.0

Where:
  YYYY   = Year
  MM/DD  = Month / Date
  hh:mm  = Hour  : Minute
  Temp   = Temperature outside       (F)              @ 5720', on tower
  Humid  = Humidity    outside       (%)              @ 5720'
  W_dir  = Wind direction / Azimuth  (degrees)        @ 5720'
  W_spd  = Wind speed                (miles per hour) @ 5720'
  Barom  = Sea-level air pressure    (inches of mercury)
  T_int  = Temperature (internal)    (F)              - inside barometer case
  Light  = Outside light level       (no units)       - 0 = dark, 1000 = bright
  Power  = Power supply rail         (Volts)
  Temp2  = Temperature (back-up)     (F)
  P2     = datalogger counter channel "P2" (to be static burst counter)
  Snow   = Snow depth,  mid-mountain (inches)         @ 5010'
  T_mid  = Temperature, mid-mountain (F)              @ 5010'
  T_base = Temperature @ south lodge (F)              @ 4700'
  Precip = Precipitation total       (inches)         @ 4800' (near US20 mp81)

Notes:
1999 07/17
   Barometric data in this listing should have an additional
   temperature correction applied to it, based on the sensor's
   internal temperature:

   P_corrected = Barom + (-0.0223 * T_int) + 0.8887  (inches Hg)

2004 07/03
   The air pressure correction equation has not been checked
   in a long time.  The air pressure reading is best used only
   to observe general trends.

2006 11/18
   Added precipitation gauge.  Depth is precipitation equivalent in water,
   for the water year (beginning October 1st) at the Hogg Pass
   SnoTel station.

2011 03/11
  Fixed data column title bug from adding "T_base" after "T_mid".
  If you notice a bug like this it will get fixed a whole lot sooner
  if you tell me about it.